Wetterdaten: aktuell Freitag, 06.12.2019 09:16
Datum Zeit Temp. Aussen Temp. o. S. Temp +5cm Feuchte Auss Luftdruck Regen Sonnenschein Regendauer Solar Windben Empfang
06.12.2019 09:16 2,4 C 1,1 C 0,6 C 91 % 1014,0 hPa 0,0 l/m 0 min 2 min 6 W/m 12,9 km/h (3 Bft) 97,87 %
06.12.2019 09:14 2,4 C 1,1 C 0,6 C 91 % 1014,1 hPa 0,0 l/m 0 min 2 min 5 W/m 16,1 km/h (3 Bft) 93,62 %
06.12.2019 09:12 2,4 C 1,1 C 0,6 C 91 % 1014,1 hPa 0,0 l/m 0 min 2 min 5 W/m 19,3 km/h (3 Bft) 95,65 %
06.12.2019 09:10 2,4 C 1,1 C 0,6 C 91 % 1014,0 hPa 0,0 l/m 0 min 2 min 5 W/m 16,1 km/h (3 Bft) 95,74 %
06.12.2019 09:08 2,4 C 1,1 C 0,6 C 91 % 1014,0 hPa 0,0 l/m 0 min 2 min 5 W/m 12,9 km/h (3 Bft) 95,74 %
06.12.2019 09:06 2,4 C 1,1 C 0,6 C 91 % 1014,1 hPa 0,0 l/m 0 min 2 min 5 W/m 19,3 km/h (3 Bft) 95,74 %
06.12.2019 09:04 2,4 C 1,1 C 1,1 C 91 % 1014,1 hPa 0,0 l/m 0 min 2 min 5 W/m 16,1 km/h (3 Bft) 87,23 %
06.12.2019 09:02 2,4 C 1,1 C 1,1 C 91 % 1014,1 hPa 0,0 l/m 0 min 2 min 5 W/m 19,3 km/h (3 Bft) 93,62 %
06.12.2019 09:00 2,3 C 1,1 C 1,1 C 91 % 1014,1 hPa 0,0 l/m 0 min 2 min 5 W/m 25,7 km/h (4 Bft) 95,65 %
06.12.2019 08:58 2,3 C 1,7 C 1,1 C 91 % 1014,1 hPa 0,0 l/m 0 min 2 min 5 W/m 19,3 km/h (3 Bft) 95,74 %
06.12.2019 08:56 2,3 C 1,7 C 1,1 C 91 % 1014,2 hPa 0,0 l/m 0 min 2 min 1 W/m 22,5 km/h (4 Bft) 93,62 %
06.12.2019 08:54 2,3 C 2,2 C 1,7 C 91 % 1014,1 hPa 0,0 l/m 0 min 2 min 0 W/m 12,9 km/h (3 Bft) 95,74 %
06.12.2019 08:52 2,3 C 2,2 C 1,7 C 92 % 1014,1 hPa 0,0 l/m 0 min 0 min 0 W/m 12,9 km/h (3 Bft) 95,74 %
06.12.2019 08:50 2,3 C 2,2 C 1,7 C 92 % 1014,1 hPa 0,0 l/m 0 min 0 min 0 W/m 12,9 km/h (3 Bft) 95,74 %
06.12.2019 08:48 2,3 C 2,2 C 1,7 C 92 % 1014,1 hPa 0,0 l/m 0 min 0 min 0 W/m 22,5 km/h (4 Bft) 95,65 %
06.12.2019 08:46 2,2 C 2,2 C 1,7 C 92 % 1014,1 hPa 0,0 l/m 0 min 0 min 0 W/m 19,3 km/h (3 Bft) 97,87 %
06.12.2019 08:44 2,2 C 2,2 C 1,7 C 92 % 1014,1 hPa 0,0 l/m 0 min 0 min 0 W/m 19,3 km/h (3 Bft) 97,87 %
06.12.2019 08:42 2,2 C 2,2 C 1,7 C 92 % 1014,1 hPa 0,0 l/m 0 min 0 min 0 W/m 22,5 km/h (4 Bft) 97,87 %
06.12.2019 08:40 2,2 C 2,2 C 1,1 C 92 % 1014,1 hPa 0,0 l/m 0 min 0 min 0 W/m 19,3 km/h (3 Bft) 97,87 %
06.12.2019 08:38 2,2 C 2,2 C 1,1 C 92 % 1014,1 hPa 0,0 l/m 0 min 0 min 0 W/m 19,3 km/h (3 Bft) 95,74 %
06.12.2019 08:36 2,2 C 1,7 C 1,1 C 92 % 1014,1 hPa 0,0 l/m 0 min 0 min 0 W/m 19,3 km/h (3 Bft) 97,83 %
06.12.2019 08:34 2,1 C 1,7 C 1,1 C 92 % 1014,1 hPa 0,0 l/m 0 min 0 min 0 W/m 12,9 km/h (3 Bft) 97,87 %
06.12.2019 08:32 2,1 C 1,7 C 1,1 C 92 % 1014,1 hPa 0,0 l/m 0 min 0 min 0 W/m 16,1 km/h (3 Bft) 97,87 %
06.12.2019 08:30 2,1 C 1,7 C 1,1 C 92 % 1014,1 hPa 0,0 l/m 0 min 0 min 0 W/m 16,1 km/h (3 Bft) 97,87 %
06.12.2019 08:28 2,1 C 1,7 C 1,1 C 92 % 1014,1 hPa 0,0 l/m 0 min 0 min 0 W/m 12,9 km/h (3 Bft) 97,87 %
06.12.2019 08:26 2,1 C 1,7 C 1,1 C 92 % 1014,0 hPa 0,0 l/m 0 min 0 min 0 W/m 16,1 km/h (3 Bft) 97,87 %
06.12.2019 08:24 2,1 C 1,7 C 1,1 C 92 % 1014,1 hPa 0,0 l/m 0 min 0 min 0 W/m 16,1 km/h (3 Bft) 97,83 %
06.12.2019 08:22 2,1 C 1,7 C 1,1 C 92 % 1014,1 hPa 0,0 l/m 0 min 0 min 0 W/m 19,3 km/h (3 Bft) 95,74 %
06.12.2019 08:20 2,0 C 1,7 C 1,1 C 92 % 1014,1 hPa 0,0 l/m 0 min 0 min 0 W/m 12,9 km/h (3 Bft) 97,87 %
06.12.2019 08:18 2,0 C 1,7 C 1,1 C 92 % 1014,1 hPa 0,0 l/m 0 min 0 min 0 W/m 29,0 km/h (5 Bft) 97,87 %
06.12.2019 08:16 1,9 C 1,7 C 1,1 C 92 % 1014,0 hPa 0,0 l/m 0 min 0 min 0 W/m 12,9 km/h (3 Bft) 100,00 %
06.12.2019 08:14 1,9 C 1,7 C 1,1 C 92 % 1014,1 hPa 0,0 l/m 0 min 0 min 0 W/m 16,1 km/h (3 Bft) 100,00 %
06.12.2019 08:12 1,9 C 1,7 C 1,1 C 92 % 1014,0 hPa 0,0 l/m 0 min 0 min 0 W/m 16,1 km/h (3 Bft) 93,48 %
06.12.2019 08:10 1,9 C 1,7 C 1,1 C 92 % 1014,0 hPa 0,0 l/m 0 min 0 min 0 W/m 19,3 km/h (3 Bft) 97,87 %
06.12.2019 08:08 1,9 C 1,7 C 1,1 C 92 % 1014,1 hPa 0,0 l/m 0 min 0 min 0 W/m 16,1 km/h (3 Bft) 95,74 %
06.12.2019 08:06 1,8 C 1,7 C 1,1 C 92 % 1014,1 hPa 0,0 l/m 0 min 0 min 0 W/m 19,3 km/h (3 Bft) 97,87 %
06.12.2019 08:04 1,9 C 1,7 C 1,1 C 93 % 1014,1 hPa 0,0 l/m 0 min 0 min 0 W/m 22,5 km/h (4 Bft) 97,87 %
06.12.2019 08:02 1,8 C 1,7 C 1,1 C 93 % 1014,2 hPa 0,0 l/m 0 min 0 min 0 W/m 19,3 km/h (3 Bft) 93,48 %
06.12.2019 08:00 1,8 C 1,7 C 1,1 C 93 % 1014,2 hPa 0,0 l/m 0 min 0 min 0 W/m 19,3 km/h (3 Bft) 97,87 %
06.12.2019 07:58 1,8 C 1,7 C 1,1 C 93 % 1014,2 hPa 0,0 l/m 0 min 0 min 0 W/m 19,3 km/h (3 Bft) 95,74 %
06.12.2019 07:56 1,8 C 1,1 C 1,1 C 93 % 1014,3 hPa 0,0 l/m 0 min 0 min 0 W/m 22,5 km/h (4 Bft) 97,87 %
06.12.2019 07:54 1,8 C 1,1 C 1,1 C 93 % 1014,2 hPa 0,0 l/m 0 min 0 min 0 W/m 12,9 km/h (3 Bft) 97,87 %
06.12.2019 07:52 1,8 C 1,1 C 1,1 C 93 % 1014,3 hPa 0,0 l/m 0 min 0 min 0 W/m 16,1 km/h (3 Bft) 97,87 %
06.12.2019 07:50 1,8 C 1,1 C 1,1 C 93 % 1014,3 hPa 0,0 l/m 0 min 0 min 0 W/m 19,3 km/h (3 Bft) 95,65 %
06.12.2019 07:48 1,8 C 1,1 C 1,1 C 93 % 1014,3 hPa 0,0 l/m 0 min 0 min 0 W/m 19,3 km/h (3 Bft) 97,87 %
06.12.2019 07:46 1,8 C 1,1 C 1,1 C 93 % 1014,2 hPa 0,0 l/m 0 min 0 min 0 W/m 22,5 km/h (4 Bft) 97,87 %
06.12.2019 07:44 1,8 C 1,1 C 0,6 C 93 % 1014,2 hPa 0,0 l/m 0 min 0 min 0 W/m 19,3 km/h (3 Bft) 95,74 %
06.12.2019 07:42 1,8 C 1,1 C 0,6 C 93 % 1014,2 hPa 0,0 l/m 0 min 0 min 0 W/m 19,3 km/h (3 Bft) 97,87 %
06.12.2019 07:40 1,8 C 1,1 C 0,6 C 93 % 1014,2 hPa 0,0 l/m 0 min 0 min 0 W/m 22,5 km/h (4 Bft) 97,87 %
06.12.2019 07:38 1,8 C 1,1 C 0,6 C 93 % 1014,2 hPa 0,0 l/m 0 min 0 min 0 W/m 19,3 km/h (3 Bft) 97,83 %
06.12.2019 07:36 1,7 C 1,1 C 0,6 C 93 % 1014,2 hPa 0,0 l/m 0 min 0 min 0 W/m 19,3 km/h (3 Bft) 95,74 %
06.12.2019 07:34 1,7 C 1,1 C 0,6 C 93 % 1014,3 hPa 0,0 l/m 0 min 0 min 0 W/m 12,9 km/h (3 Bft) 97,87 %
06.12.2019 07:32 1,7 C 1,1 C 0,6 C 93 % 1014,2 hPa 0,0 l/m 0 min 0 min 0 W/m 16,1 km/h (3 Bft) 97,87 %
06.12.2019 07:30 1,7 C 1,1 C 0,6 C 93 % 1014,2 hPa 0,0 l/m 0 min 0 min 0 W/m 16,1 km/h (3 Bft) 97,87 %
06.12.2019 07:28 1,7 C 1,1 C 0,6 C 93 % 1014,3 hPa 0,0 l/m 0 min 0 min 0 W/m 16,1 km/h (3 Bft) 97,87 %
06.12.2019 07:26 1,7 C 1,1 C 0,6 C 93 % 1014,2 hPa 0,0 l/m 0 min 0 min 0 W/m 19,3 km/h (3 Bft) 97,83 %
06.12.2019 07:24 1,7 C 1,1 C 1,1 C 93 % 1014,3 hPa 0,0 l/m 0 min 0 min 0 W/m 19,3 km/h (3 Bft) 97,87 %
06.12.2019 07:22 1,7 C 1,7 C 1,1 C 93 % 1014,4 hPa 0,0 l/m 0 min 0 min 0 W/m 16,1 km/h (3 Bft) 97,87 %
06.12.2019 07:20 1,7 C 1,7 C 1,1 C 93 % 1014,3 hPa 0,0 l/m 0 min 0 min 0 W/m 25,7 km/h (4 Bft) 97,87 %
06.12.2019 07:18 1,6 C 1,1 C 0,6 C 93 % 1014,3 hPa 0,0 l/m 0 min 0 min 0 W/m 19,3 km/h (3 Bft) 95,74 %
06.12.2019 07:16 1,6 C 1,1 C 0,6 C 93 % 1014,3 hPa 0,0 l/m 0 min 0 min 0 W/m 22,5 km/h (4 Bft) 97,87 %
06.12.2019 07:14 1,6 C 1,1 C 0,6 C 93 % 1014,3 hPa 0,0 l/m 0 min 0 min 0 W/m 22,5 km/h (4 Bft) 95,65 %
06.12.2019 07:12 1,6 C 1,1 C 0,6 C 93 % 1014,3 hPa 0,0 l/m 0 min 0 min 0 W/m 22,5 km/h (4 Bft) 97,87 %
06.12.2019 07:10 1,6 C 1,1 C 0,6 C 93 % 1014,3 hPa 0,0 l/m 0 min 0 min 0 W/m 22,5 km/h (4 Bft) 95,74 %
06.12.2019 07:08 1,6 C 1,1 C 0,6 C 93 % 1014,3 hPa 0,0 l/m 0 min 0 min 0 W/m 16,1 km/h (3 Bft) 97,87 %
06.12.2019 07:06 1,6 C 1,1 C 0,6 C 93 % 1014,3 hPa 0,0 l/m 0 min 0 min 0 W/m 16,1 km/h (3 Bft) 97,87 %
06.12.2019 07:04 1,6 C 1,1 C 0,6 C 93 % 1014,5 hPa 0,0 l/m 0 min 0 min 0 W/m 16,1 km/h (3 Bft) 100,00 %
06.12.2019 07:02 1,6 C 1,1 C 0,6 C 93 % 1014,5 hPa 0,0 l/m 0 min 0 min 0 W/m 12,9 km/h (3 Bft) 97,87 %
06.12.2019 07:00 1,6 C 1,1 C 0,6 C 93 % 1014,5 hPa 0,0 l/m 0 min 0 min 0 W/m 9,7 km/h (2 Bft) 100,00 %
06.12.2019 06:58 1,5 C 1,1 C 0,6 C 93 % 1014,5 hPa 0,0 l/m 0 min 0 min 0 W/m 12,9 km/h (3 Bft) 97,87 %
06.12.2019 06:56 1,5 C 1,1 C 0,6 C 93 % 1014,4 hPa 0,0 l/m 0 min 0 min 0 W/m 19,3 km/h (3 Bft) 95,74 %
06.12.2019 06:54 1,5 C 1,1 C 0,6 C 93 % 1014,5 hPa 0,0 l/m 0 min 0 min 0 W/m 12,9 km/h (3 Bft) 97,87 %
06.12.2019 06:52 1,5 C 1,1 C 0,6 C 93 % 1014,5 hPa 0,0 l/m 0 min 0 min 0 W/m 16,1 km/h (3 Bft) 97,83 %
06.12.2019 06:50 1,4 C 1,1 C 0,6 C 93 % 1014,4 hPa 0,0 l/m 0 min 0 min 0 W/m 12,9 km/h (3 Bft) 97,87 %
06.12.2019 06:48 1,4 C 1,1 C 0,6 C 93 % 1014,4 hPa 0,0 l/m 0 min 0 min 0 W/m 22,5 km/h (4 Bft) 97,87 %
06.12.2019 06:46 1,4 C 1,1 C 0,6 C 93 % 1014,6 hPa 0,0 l/m 0 min 0 min 0 W/m 19,3 km/h (3 Bft) 97,87 %
06.12.2019 06:44 1,4 C 1,1 C 0,6 C 93 % 1014,6 hPa 0,0 l/m 0 min 0 min 0 W/m 16,1 km/h (3 Bft) 97,87 %
06.12.2019 06:42 1,4 C 1,1 C 0,6 C 93 % 1014,6 hPa 0,0 l/m 0 min 0 min 0 W/m 16,1 km/h (3 Bft) 97,87 %
06.12.2019 06:40 1,4 C 1,1 C 0,6 C 93 % 1014,6 hPa 0,0 l/m 0 min 0 min 0 W/m 16,1 km/h (3 Bft) 97,83 %
06.12.2019 06:38 1,4 C 1,1 C 0,6 C 93 % 1014,6 hPa 0,0 l/m 0 min 0 min 0 W/m 19,3 km/h (3 Bft) 95,74 %
06.12.2019 06:36 1,4 C 1,1 C 0,6 C 93 % 1014,6 hPa 0,0 l/m 0 min 0 min 0 W/m 19,3 km/h (3 Bft) 95,74 %
06.12.2019 06:34 1,4 C 1,1 C 0,6 C 93 % 1014,6 hPa 0,0 l/m 0 min 0 min 0 W/m 19,3 km/h (3 Bft) 97,87 %
06.12.2019 06:32 1,4 C 1,1 C 0,6 C 93 % 1014,6 hPa 0,0 l/m 0 min 0 min 0 W/m 19,3 km/h (3 Bft) 97,87 %
06.12.2019 06:30 1,3 C 1,1 C 0,6 C 93 % 1014,6 hPa 0,0 l/m 0 min 0 min 0 W/m 19,3 km/h (3 Bft) 97,87 %
06.12.2019 06:28 1,3 C 1,1 C 0,6 C 93 % 1014,6 hPa 0,0 l/m 0 min 0 min 0 W/m 16,1 km/h (3 Bft) 97,83 %
06.12.2019 06:26 1,3 C 1,1 C 0,6 C 93 % 1014,7 hPa 0,0 l/m 0 min 0 min 0 W/m 19,3 km/h (3 Bft) 95,74 %
06.12.2019 06:24 1,3 C 1,1 C 0,6 C 93 % 1014,7 hPa 0,0 l/m 0 min 0 min 0 W/m 16,1 km/h (3 Bft) 95,74 %
06.12.2019 06:22 1,3 C 1,1 C 0,6 C 93 % 1014,6 hPa 0,0 l/m 0 min 0 min 0 W/m 25,7 km/h (4 Bft) 97,87 %
06.12.2019 06:20 1,3 C 1,1 C 0,6 C 93 % 1014,7 hPa 0,0 l/m 0 min 0 min 0 W/m 22,5 km/h (4 Bft) 93,62 %
06.12.2019 06:18 1,3 C 0,6 C 0,0 C 93 % 1014,7 hPa 0,0 l/m 0 min 0 min 0 W/m 22,5 km/h (4 Bft) 95,74 %
06.12.2019 06:16 1,3 C 0,6 C 0,0 C 93 % 1014,8 hPa 0,0 l/m 0 min 0 min 0 W/m 19,3 km/h (3 Bft) 97,83 %
06.12.2019 06:14 1,3 C 0,6 C 0,0 C 93 % 1014,8 hPa 0,0 l/m 0 min 0 min 0 W/m 19,3 km/h (3 Bft) 95,74 %
06.12.2019 06:12 1,3 C 0,6 C 0,0 C 93 % 1014,7 hPa 0,0 l/m 0 min 0 min 0 W/m 12,9 km/h (3 Bft) 97,87 %
06.12.2019 06:10 1,3 C 0,6 C 0,0 C 93 % 1014,7 hPa 0,0 l/m 0 min 0 min 0 W/m 16,1 km/h (3 Bft) 95,74 %
06.12.2019 06:08 1,3 C 0,6 C 0,0 C 93 % 1014,7 hPa 0,0 l/m 0 min 0 min 0 W/m 22,5 km/h (4 Bft) 97,87 %
06.12.2019 06:06 1,3 C 0,6 C 0,0 C 93 % 1014,8 hPa 0,0 l/m 0 min 0 min 0 W/m 19,3 km/h (3 Bft) 97,83 %
06.12.2019 06:04 1,3 C 0,6 C 0,0 C 93 % 1014,7 hPa 0,0 l/m 0 min 0 min 0 W/m 16,1 km/h (3 Bft) 95,74 %
06.12.2019 06:02 1,3 C 0,6 C 0,0 C 93 % 1014,8 hPa 0,0 l/m 0 min 0 min 0 W/m 16,1 km/h (3 Bft) 95,74 %
06.12.2019 06:00 1,3 C 0,6 C 0,0 C 93 % 1014,8 hPa 0,0 l/m 0 min 0 min 0 W/m 16,1 km/h (3 Bft) 97,87 %
06.12.2019 05:58 1,3 C 0,6 C 0,0 C 93 % 1014,9 hPa 0,0 l/m 0 min 0 min 0 W/m 25,7 km/h (4 Bft) 97,87 %
06.12.2019 05:56 1,3 C 0,6 C 0,0 C 93 % 1014,9 hPa 0,0 l/m 0 min 0 min 0 W/m 22,5 km/h (4 Bft) 95,74 %
06.12.2019 05:54 1,3 C 0,6 C 0,0 C 93 % 1014,9 hPa 0,0 l/m 0 min 0 min 0 W/m 16,1 km/h (3 Bft) 97,83 %
06.12.2019 05:52 1,3 C 0,6 C 0,0 C 93 % 1015,0 hPa 0,0 l/m 0 min 0 min 0 W/m 16,1 km/h (3 Bft) 97,87 %
06.12.2019 05:50 1,3 C 0,6 C 0,0 C 93 % 1015,0 hPa 0,0 l/m 0 min 0 min 0 W/m 16,1 km/h (3 Bft) 95,74 %
06.12.2019 05:48 1,3 C 0,6 C 0,0 C 93 % 1014,9 hPa 0,0 l/m 0 min 2 min 0 W/m 16,1 km/h (3 Bft) 97,87 %
06.12.2019 05:46 1,3 C 0,6 C 0,0 C 93 % 1014,9 hPa 0,0 l/m 0 min 2 min 0 W/m 22,5 km/h (4 Bft) 97,87 %
06.12.2019 05:44 1,3 C 0,6 C 0,0 C 93 % 1014,9 hPa 0,0 l/m 0 min 2 min 0 W/m 25,7 km/h (4 Bft) 97,87 %
06.12.2019 05:42 1,3 C 0,6 C 0,0 C 93 % 1015,0 hPa 0,0 l/m 0 min 2 min 0 W/m 19,3 km/h (3 Bft) 97,83 %
06.12.2019 05:40 1,3 C 0,6 C 0,0 C 93 % 1015,0 hPa 0,0 l/m 0 min 2 min 0 W/m 16,1 km/h (3 Bft) 97,87 %
06.12.2019 05:38 1,3 C 0,6 C 0,6 C 93 % 1015,0 hPa 0,0 l/m 0 min 0 min 0 W/m 19,3 km/h (3 Bft) 97,87 %
06.12.2019 05:36 1,3 C 0,6 C 0,6 C 93 % 1015,0 hPa 0,0 l/m 0 min 2 min 0 W/m 19,3 km/h (3 Bft) 97,87 %
06.12.2019 05:34 1,3 C 0,6 C 0,6 C 93 % 1015,0 hPa 0,0 l/m 0 min 0 min 0 W/m 22,5 km/h (4 Bft) 97,87 %
06.12.2019 05:32 1,3 C 0,6 C 0,6 C 93 % 1015,0 hPa 0,0 l/m 0 min 0 min 0 W/m 19,3 km/h (3 Bft) 97,87 %
06.12.2019 05:30 1,3 C 0,6 C 0,6 C 93 % 1015,1 hPa 0,0 l/m 0 min 0 min 0 W/m 16,1 km/h (3 Bft) 100,00 %
06.12.2019 05:28 1,3 C 1,1 C 0,6 C 93 % 1015,0 hPa 0,0 l/m 0 min 0 min 0 W/m 16,1 km/h (3 Bft) 100,00 %
06.12.2019 05:26 1,3 C 0,6 C 0,6 C 93 % 1015,1 hPa 0,0 l/m 0 min 0 min 0 W/m 6,4 km/h (2 Bft) 95,74 %
06.12.2019 05:24 1,3 C 0,6 C 0,6 C 93 % 1015,1 hPa 0,0 l/m 0 min 0 min 0 W/m 16,1 km/h (3 Bft) 97,87 %
06.12.2019 05:22 1,3 C 1,1 C 0,6 C 93 % 1015,1 hPa 0,0 l/m 0 min 0 min 0 W/m 16,1 km/h (3 Bft) 97,87 %
06.12.2019 05:20 1,3 C 0,6 C 0,6 C 93 % 1015,1 hPa 0,0 l/m 0 min 0 min 0 W/m 16,1 km/h (3 Bft) 100,00 %
06.12.2019 05:18 1,3 C 0,6 C 0,6 C 93 % 1015,1 hPa 0,0 l/m 0 min 0 min 0 W/m 16,1 km/h (3 Bft) 100,00 %
06.12.2019 05:16 1,3 C 0,6 C 0,6 C 93 % 1015,1 hPa 0,0 l/m 0 min 0 min 0 W/m 12,9 km/h (3 Bft) 100,00 %
06.12.2019 05:14 1,3 C 0,6 C 0,6 C 93 % 1015,1 hPa 0,0 l/m 0 min 0 min 0 W/m 12,9 km/h (3 Bft) 97,87 %
06.12.2019 05:12 1,3 C 0,6 C 0,0 C 93 % 1015,1 hPa 0,0 l/m 0 min 0 min 0 W/m 16,1 km/h (3 Bft) 100,00 %
06.12.2019 05:10 1,3 C 0,6 C 0,0 C 93 % 1015,1 hPa 0,0 l/m 0 min 0 min 0 W/m 19,3 km/h (3 Bft) 97,87 %
06.12.2019 05:08 1,3 C 0,6 C 0,0 C 93 % 1015,1 hPa 0,0 l/m 0 min 0 min 0 W/m 12,9 km/h (3 Bft) 100,00 %
06.12.2019 05:06 1,3 C 0,6 C 0,0 C 93 % 1015,1 hPa 0,0 l/m 0 min 0 min 0 W/m 6,4 km/h (2 Bft) 100,00 %
06.12.2019 05:04 1,3 C 0,6 C 0,0 C 93 % 1015,1 hPa 0,0 l/m 0 min 0 min 0 W/m 12,9 km/h (3 Bft) 100,00 %
06.12.2019 05:02 1,3 C 0,6 C 0,6 C 93 % 1015,1 hPa 0,0 l/m 0 min 0 min 0 W/m 6,4 km/h (2 Bft) 100,00 %
06.12.2019 05:00 1,3 C 0,6 C 0,6 C 93 % 1015,1 hPa 0,0 l/m 0 min 0 min 0 W/m 16,1 km/h (3 Bft) 97,87 %
06.12.2019 04:58 1,3 C 0,6 C 0,6 C 93 % 1015,1 hPa 0,0 l/m 0 min 0 min 0 W/m 16,1 km/h (3 Bft) 97,87 %
06.12.2019 04:56 1,3 C 0,6 C 0,6 C 93 % 1015,1 hPa 0,0 l/m 0 min 0 min 0 W/m 16,1 km/h (3 Bft) 97,83 %
06.12.2019 04:54 1,3 C 0,6 C 0,6 C 93 % 1015,1 hPa 0,0 l/m 0 min 0 min 0 W/m 16,1 km/h (3 Bft) 100,00 %
06.12.2019 04:52 1,3 C 0,6 C 0,6 C 93 % 1015,2 hPa 0,0 l/m 0 min 0 min 0 W/m 16,1 km/h (3 Bft) 97,87 %
06.12.2019 04:50 1,3 C 0,6 C 0,6 C 93 % 1015,2 hPa 0,0 l/m 0 min 0 min 0 W/m 12,9 km/h (3 Bft) 100,00 %
06.12.2019 04:48 1,3 C 0,6 C 0,6 C 93 % 1015,2 hPa 0,0 l/m 0 min 0 min 0 W/m 19,3 km/h (3 Bft) 97,87 %
06.12.2019 04:46 1,3 C 0,6 C 0,6 C 93 % 1015,2 hPa 0,0 l/m 0 min 0 min 0 W/m 16,1 km/h (3 Bft) 100,00 %
06.12.2019 04:44 1,3 C 0,6 C 0,6 C 93 % 1015,2 hPa 0,0 l/m 0 min 0 min 0 W/m 6,4 km/h (2 Bft) 100,00 %
06.12.2019 04:42 1,3 C 0,6 C 0,6 C 93 % 1015,2 hPa 0,0 l/m 0 min 0 min 0 W/m 12,9 km/h (3 Bft) 54,55 %
06.12.2019 04:40 1,3 C 0,6 C 0,6 C 93 % 1015,3 hPa 0,0 l/m 0 min 0 min 0 W/m 12,9 km/h (3 Bft) 97,87 %
06.12.2019 04:38 1,3 C 0,6 C 0,6 C 93 % 1015,3 hPa 0,0 l/m 0 min 0 min 0 W/m 12,9 km/h (3 Bft) 93,62 %
06.12.2019 04:36 1,3 C 0,6 C 0,6 C 93 % 1015,3 hPa 0,0 l/m 0 min 0 min 0 W/m 12,9 km/h (3 Bft) 97,87 %
06.12.2019 04:34 1,3 C 0,6 C 0,6 C 93 % 1015,3 hPa 0,0 l/m 0 min 0 min 0 W/m 16,1 km/h (3 Bft) 97,83 %
06.12.2019 04:32 1,3 C 0,6 C 0,6 C 93 % 1015,3 hPa 0,0 l/m 0 min 0 min 0 W/m 16,1 km/h (3 Bft) 95,74 %
06.12.2019 04:30 1,3 C 0,6 C 0,6 C 93 % 1015,3 hPa 0,0 l/m 0 min 0 min 0 W/m 19,3 km/h (3 Bft) 97,87 %
06.12.2019 04:28 1,3 C 0,6 C 0,6 C 93 % 1015,3 hPa 0,0 l/m 0 min 0 min 0 W/m 22,5 km/h (4 Bft) 97,87 %
06.12.2019 04:26 1,3 C 0,6 C 0,6 C 93 % 1015,4 hPa 0,0 l/m 0 min 0 min 0 W/m 16,1 km/h (3 Bft) 95,74 %
06.12.2019 04:24 1,3 C 0,6 C 0,6 C 93 % 1015,4 hPa 0,0 l/m 0 min 0 min 0 W/m 6,4 km/h (2 Bft) 97,87 %
06.12.2019 04:22 1,3 C 0,6 C 0,6 C 93 % 1015,3 hPa 0,0 l/m 0 min 0 min 0 W/m 12,9 km/h (3 Bft) 97,83 %
06.12.2019 04:20 1,3 C 0,6 C 0,6 C 93 % 1015,4 hPa 0,0 l/m 0 min 2 min 0 W/m 16,1 km/h (3 Bft) 97,87 %
06.12.2019 04:18 1,3 C 0,6 C 0,6 C 93 % 1015,3 hPa 0,0 l/m 0 min 2 min 0 W/m 12,9 km/h (3 Bft) 91,49 %
06.12.2019 04:16 1,3 C 0,6 C 0,6 C 93 % 1015,3 hPa 0,0 l/m 0 min 0 min 0 W/m 25,7 km/h (4 Bft) 95,74 %
06.12.2019 04:14 1,3 C 0,6 C 0,6 C 93 % 1015,3 hPa 0,0 l/m 0 min 0 min 0 W/m 16,1 km/h (3 Bft) 95,74 %
06.12.2019 04:12 1,3 C 0,6 C 0,6 C 93 % 1015,4 hPa 0,0 l/m 0 min 0 min 0 W/m 16,1 km/h (3 Bft) 95,74 %
06.12.2019 04:10 1,3 C 0,6 C 0,6 C 93 % 1015,4 hPa 0,0 l/m 0 min 0 min 0 W/m 16,1 km/h (3 Bft) 95,65 %
06.12.2019 04:08 1,3 C 0,6 C 0,6 C 93 % 1015,4 hPa 0,0 l/m 0 min 0 min 0 W/m 16,1 km/h (3 Bft) 97,87 %
06.12.2019 04:06 1,3 C 0,6 C 0,0 C 93 % 1015,4 hPa 0,0 l/m 0 min 0 min 0 W/m 16,1 km/h (3 Bft) 95,74 %
06.12.2019 04:04 1,3 C 0,6 C 0,0 C 93 % 1015,4 hPa 0,0 l/m 0 min 0 min 0 W/m 12,9 km/h (3 Bft) 97,87 %
06.12.2019 04:02 1,3 C 0,6 C 0,0 C 93 % 1015,5 hPa 0,0 l/m 0 min 0 min 0 W/m 12,9 km/h (3 Bft) 88,89 %
06.12.2019 04:00 1,3 C 0,6 C 0,0 C 93 % 1015,5 hPa 0,0 l/m 0 min 0 min 0 W/m 16,1 km/h (3 Bft) 95,74 %
06.12.2019 03:58 1,3 C 0,6 C 0,0 C 93 % 1015,6 hPa 0,0 l/m 0 min 0 min 0 W/m 19,3 km/h (3 Bft) 95,65 %
06.12.2019 03:56 1,3 C 0,6 C 0,0 C 93 % 1015,6 hPa 0,0 l/m 0 min 0 min 0 W/m 16,1 km/h (3 Bft) 93,62 %
06.12.2019 03:54 1,3 C 0,6 C 0,0 C 93 % 1015,6 hPa 0,0 l/m 0 min 0 min 0 W/m 19,3 km/h (3 Bft) 95,74 %
06.12.2019 03:52 1,4 C 0,6 C 0,0 C 93 % 1015,7 hPa 0,0 l/m 0 min 0 min 0 W/m 16,1 km/h (3 Bft) 95,74 %
06.12.2019 03:50 1,4 C 0,6 C 0,0 C 93 % 1015,7 hPa 0,0 l/m 0 min 0 min 0 W/m 19,3 km/h (3 Bft) 93,62 %
06.12.2019 03:48 1,4 C 0,6 C 0,0 C 93 % 1015,7 hPa 0,0 l/m 0 min 0 min 0 W/m 12,9 km/h (3 Bft) 95,74 %
06.12.2019 03:46 1,4 C 0,6 C 0,6 C 93 % 1015,8 hPa 0,0 l/m 0 min 0 min 0 W/m 16,1 km/h (3 Bft) 95,65 %
06.12.2019 03:44 1,4 C 0,6 C 0,0 C 93 % 1015,8 hPa 0,0 l/m 0 min 0 min 0 W/m 6,4 km/h (2 Bft) 93,62 %
06.12.2019 03:42 1,4 C 0,6 C 0,0 C 93 % 1015,9 hPa 0,0 l/m 0 min 0 min 0 W/m 16,1 km/h (3 Bft) 97,87 %
06.12.2019 03:40 1,5 C 0,6 C 0,0 C 93 % 1015,9 hPa 0,0 l/m 0 min 0 min 0 W/m 12,9 km/h (3 Bft) 97,87 %
06.12.2019 03:38 1,5 C 0,6 C 0,0 C 93 % 1016,0 hPa 0,0 l/m 0 min 0 min 0 W/m 6,4 km/h (2 Bft) 97,87 %
06.12.2019 03:36 1,6 C 0,6 C 0,0 C 93 % 1015,9 hPa 0,0 l/m 0 min 0 min 0 W/m 12,9 km/h (3 Bft) 97,83 %
06.12.2019 03:34 1,6 C 0,6 C 0,0 C 94 % 1015,9 hPa 0,0 l/m 0 min 0 min 0 W/m 6,4 km/h (2 Bft) 97,87 %
06.12.2019 03:32 1,6 C 0,6 C 0,0 C 94 % 1015,9 hPa 0,0 l/m 0 min 0 min 0 W/m 16,1 km/h (3 Bft) 97,87 %
06.12.2019 03:30 1,7 C 0,6 C 0,6 C 94 % 1015,9 hPa 0,0 l/m 0 min 0 min 0 W/m 16,1 km/h (3 Bft) 95,74 %
06.12.2019 03:28 1,7 C 1,1 C 0,6 C 94 % 1016,0 hPa 0,0 l/m 0 min 0 min 0 W/m 12,9 km/h (3 Bft) 95,74 %
06.12.2019 03:26 1,7 C 1,1 C 0,6 C 94 % 1016,1 hPa 0,0 l/m 0 min 0 min 0 W/m 12,9 km/h (3 Bft) 95,74 %
06.12.2019 03:24 1,7 C 1,1 C 0,6 C 94 % 1016,1 hPa 0,0 l/m 0 min 0 min 0 W/m 19,3 km/h (3 Bft) 97,83 %
06.12.2019 03:22 1,7 C 1,1 C 0,6 C 94 % 1016,1 hPa 0,0 l/m 0 min 0 min 0 W/m 19,3 km/h (3 Bft) 97,87 %
06.12.2019 03:20 1,7 C 1,1 C 0,6 C 94 % 1016,1 hPa 0,0 l/m 0 min 0 min 0 W/m 16,1 km/h (3 Bft) 97,87 %
06.12.2019 03:18 1,7 C 1,1 C 0,6 C 94 % 1016,1 hPa 0,0 l/m 0 min 0 min 0 W/m 16,1 km/h (3 Bft) 97,87 %
06.12.2019 03:16 1,6 C 1,1 C 0,6 C 94 % 1016,1 hPa 0,0 l/m 0 min 0 min 0 W/m 12,9 km/h (3 Bft) 97,87 %
06.12.2019 03:14 1,6 C 1,1 C 0,6 C 94 % 1016,2 hPa 0,0 l/m 0 min 0 min 0 W/m 12,9 km/h (3 Bft) 97,87 %
06.12.2019 03:12 1,6 C 1,1 C 0,6 C 94 % 1016,2 hPa 0,0 l/m 0 min 0 min 0 W/m 12,9 km/h (3 Bft) 97,83 %
06.12.2019 03:10 1,6 C 1,1 C 0,6 C 94 % 1016,2 hPa 0,0 l/m 0 min 0 min 0 W/m 19,3 km/h (3 Bft) 95,74 %
06.12.2019 03:08 1,5 C 1,1 C 0,6 C 94 % 1016,3 hPa 0,0 l/m 0 min 0 min 0 W/m 16,1 km/h (3 Bft) 97,87 %
06.12.2019 03:06 1,5 C 1,1 C 0,6 C 94 % 1016,3 hPa 0,0 l/m 0 min 0 min 0 W/m 12,9 km/h (3 Bft) 97,87 %
06.12.2019 03:04 1,4 C 1,1 C 0,6 C 94 % 1016,4 hPa 0,0 l/m 0 min 0 min 0 W/m 16,1 km/h (3 Bft) 95,74 %
06.12.2019 03:02 1,4 C 1,1 C 0,6 C 94 % 1016,4 hPa 0,0 l/m 0 min 0 min 0 W/m 19,3 km/h (3 Bft) 97,87 %
06.12.2019 03:00 1,4 C 1,1 C 0,6 C 94 % 1016,3 hPa 0,0 l/m 0 min 0 min 0 W/m 12,9 km/h (3 Bft) 97,83 %
06.12.2019 02:58 1,3 C 1,1 C 0,6 C 94 % 1016,3 hPa 0,0 l/m 0 min 0 min 0 W/m 16,1 km/h (3 Bft) 97,87 %
06.12.2019 02:56 1,3 C 1,1 C 0,6 C 94 % 1016,3 hPa 0,0 l/m 0 min 0 min 0 W/m 22,5 km/h (4 Bft) 97,87 %
06.12.2019 02:54 1,3 C 1,1 C 0,6 C 94 % 1016,3 hPa 0,0 l/m 0 min 0 min 0 W/m 16,1 km/h (3 Bft) 47,50 %
06.12.2019 02:52 1,3 C 1,1 C 0,6 C 94 % 1016,4 hPa 0,0 l/m 0 min 0 min 0 W/m 16,1 km/h (3 Bft) 97,87 %
06.12.2019 02:50 1,2 C 1,1 C 0,6 C 94 % 1016,4 hPa 0,0 l/m 0 min 0 min 0 W/m 12,9 km/h (3 Bft) 100,00 %
06.12.2019 02:48 1,2 C 1,1 C 0,6 C 94 % 1016,4 hPa 0,0 l/m 0 min 0 min 0 W/m 16,1 km/h (3 Bft) 97,83 %
06.12.2019 02:46 1,2 C 1,1 C 0,0 C 94 % 1016,4 hPa 0,0 l/m 0 min 0 min 0 W/m 22,5 km/h (4 Bft) 100,00 %
06.12.2019 02:44 1,1 C 0,6 C 0,0 C 94 % 1016,4 hPa 0,0 l/m 0 min 0 min 0 W/m 19,3 km/h (3 Bft) 100,00 %
06.12.2019 02:42 1,1 C 0,6 C 0,0 C 94 % 1016,4 hPa 0,0 l/m 0 min 0 min 0 W/m 12,9 km/h (3 Bft) 100,00 %
06.12.2019 02:40 1,1 C 0,6 C 0,0 C 94 % 1016,5 hPa 0,0 l/m 0 min 0 min 0 W/m 12,9 km/h (3 Bft) 100,00 %
06.12.2019 02:38 1,1 C 0,6 C 0,0 C 94 % 1016,5 hPa 0,0 l/m 0 min 0 min 0 W/m 16,1 km/h (3 Bft) 95,74 %
06.12.2019 02:36 1,1 C 0,6 C 0,0 C 94 % 1016,5 hPa 0,0 l/m 0 min 0 min 0 W/m 19,3 km/h (3 Bft) 100,00 %
06.12.2019 02:34 1,1 C 0,6 C 0,0 C 94 % 1016,4 hPa 0,0 l/m 0 min 0 min 0 W/m 19,3 km/h (3 Bft) 100,00 %
06.12.2019 02:32 1,1 C 0,6 C 0,0 C 94 % 1016,4 hPa 0,0 l/m 0 min 0 min 0 W/m 19,3 km/h (3 Bft) 100,00 %
06.12.2019 02:30 1,1 C 0,6 C 0,0 C 94 % 1016,4 hPa 0,0 l/m 0 min 0 min 0 W/m 16,1 km/h (3 Bft) 100,00 %
06.12.2019 02:28 1,0 C 0,6 C 0,0 C 94 % 1016,4 hPa 0,0 l/m 0 min 0 min 0 W/m 12,9 km/h (3 Bft) 100,00 %
06.12.2019 02:26 1,0 C 0,6 C 0,0 C 94 % 1016,5 hPa 0,0 l/m 0 min 0 min 0 W/m 16,1 km/h (3 Bft) 100,00 %
06.12.2019 02:24 0,9 C 0,6 C 0,0 C 94 % 1016,5 hPa 0,0 l/m 0 min 0 min 0 W/m 16,1 km/h (3 Bft) 100,00 %
06.12.2019 02:22 0,9 C 0,6 C 0,0 C 94 % 1016,4 hPa 0,0 l/m 0 min 0 min 0 W/m 16,1 km/h (3 Bft) 100,00 %
06.12.2019 02:20 0,9 C 0,6 C 0,0 C 94 % 1016,5 hPa 0,0 l/m 0 min 0 min 0 W/m 19,3 km/h (3 Bft) 95,74 %
06.12.2019 02:18 0,9 C 0,6 C 0,0 C 94 % 1016,5 hPa 0,0 l/m 0 min 0 min 0 W/m 19,3 km/h (3 Bft) 100,00 %
06.12.2019 02:16 0,8 C 0,6 C 0,0 C 94 % 1016,5 hPa 0,0 l/m 0 min 0 min 0 W/m 16,1 km/h (3 Bft) 100,00 %
06.12.2019 02:14 0,8 C 0,6 C 0,0 C 94 % 1016,5 hPa 0,0 l/m 0 min 0 min 0 W/m 25,7 km/h (4 Bft) 97,83 %
06.12.2019 02:12 0,8 C 0,6 C 0,0 C 94 % 1016,5 hPa 0,0 l/m 0 min 0 min 0 W/m 16,1 km/h (3 Bft) 100,00 %
06.12.2019 02:10 0,7 C 0,6 C 0,0 C 94 % 1016,5 hPa 0,0 l/m 0 min 0 min 0 W/m 22,5 km/h (4 Bft) 100,00 %
06.12.2019 02:08 0,7 C 0,6 C 0,0 C 94 % 1016,6 hPa 0,0 l/m 0 min 0 min 0 W/m 19,3 km/h (3 Bft) 100,00 %
06.12.2019 02:06 0,7 C 0,6 C 0,0 C 94 % 1016,6 hPa 0,0 l/m 0 min 0 min 0 W/m 19,3 km/h (3 Bft) 97,87 %
06.12.2019 02:04 0,6 C 0,6 C 0,0 C 94 % 1016,6 hPa 0,0 l/m 0 min 0 min 0 W/m 16,1 km/h (3 Bft) 97,87 %
06.12.2019 02:02 0,6 C 0,0 C 0,0 C 94 % 1016,6 hPa 0,0 l/m 0 min 0 min 0 W/m 19,3 km/h (3 Bft) 97,83 %
06.12.2019 02:00 0,6 C 0,0 C -0,6 C 94 % 1016,6 hPa 0,0 l/m 0 min 0 min 0 W/m 6,4 km/h (2 Bft) 100,00 %
06.12.2019 01:58 0,6 C 0,0 C -0,6 C 94 % 1016,6 hPa 0,0 l/m 0 min 0 min 0 W/m 16,1 km/h (3 Bft) 95,74 %
06.12.2019 01:56 0,6 C 0,0 C -0,6 C 93 % 1016,7 hPa 0,0 l/m 0 min 0 min 0 W/m 19,3 km/h (3 Bft) 97,87 %
06.12.2019 01:54 0,6 C 0,0 C -0,6 C 94 % 1016,7 hPa 0,0 l/m 0 min 0 min 0 W/m 12,9 km/h (3 Bft) 97,87 %
06.12.2019 01:52 0,6 C 0,0 C -0,6 C 94 % 1016,7 hPa 0,0 l/m 0 min 0 min 0 W/m 22,5 km/h (4 Bft) 100,00 %
06.12.2019 01:50 0,6 C 0,0 C -0,6 C 94 % 1016,7 hPa 0,0 l/m 0 min 0 min 0 W/m 19,3 km/h (3 Bft) 100,00 %
06.12.2019 01:48 0,6 C 0,0 C -0,6 C 94 % 1016,7 hPa 0,0 l/m 0 min 0 min 0 W/m 19,3 km/h (3 Bft) 100,00 %
06.12.2019 01:46 0,6 C 0,0 C -0,6 C 94 % 1016,8 hPa 0,0 l/m 0 min 0 min 0 W/m 19,3 km/h (3 Bft) 100,00 %
06.12.2019 01:44 0,6 C 0,0 C -0,6 C 94 % 1016,8 hPa 0,0 l/m 0 min 0 min 0 W/m 19,3 km/h (3 Bft) 95,74 %
06.12.2019 01:42 0,6 C 0,0 C -0,6 C 94 % 1016,9 hPa 0,0 l/m 0 min 0 min 0 W/m 6,4 km/h (2 Bft) 93,62 %
06.12.2019 01:40 0,6 C 0,0 C -0,6 C 94 % 1016,9 hPa 0,0 l/m 0 min 0 min 0 W/m 16,1 km/h (3 Bft) 97,87 %
06.12.2019 01:38 0,6 C 0,0 C -0,6 C 94 % 1016,9 hPa 0,0 l/m 0 min 0 min 0 W/m 12,9 km/h (3 Bft) 97,83 %
06.12.2019 01:36 0,6 C 0,0 C -0,6 C 94 % 1016,9 hPa 0,0 l/m 0 min 0 min 0 W/m 12,9 km/h (3 Bft) 95,74 %
06.12.2019 01:34 0,6 C 0,0 C -0,6 C 94 % 1016,9 hPa 0,0 l/m 0 min 0 min 0 W/m 16,1 km/h (3 Bft) 97,87 %
06.12.2019 01:32 0,6 C 0,0 C -0,6 C 94 % 1017,0 hPa 0,0 l/m 0 min 0 min 0 W/m 19,3 km/h (3 Bft) 97,87 %
06.12.2019 01:30 0,6 C 0,0 C -0,6 C 94 % 1017,0 hPa 0,0 l/m 0 min 0 min 0 W/m 16,1 km/h (3 Bft) 93,62 %
06.12.2019 01:28 0,6 C 0,0 C 0,0 C 94 % 1017,2 hPa 0,0 l/m 0 min 0 min 0 W/m 16,1 km/h (3 Bft) 97,83 %
06.12.2019 01:26 0,6 C 0,6 C 0,0 C 94 % 1017,1 hPa 0,0 l/m 0 min 0 min 0 W/m 19,3 km/h (3 Bft) 93,62 %
06.12.2019 01:24 0,6 C 0,6 C 0,0 C 94 % 1017,4 hPa 0,0 l/m 0 min 0 min 0 W/m 16,1 km/h (3 Bft) 95,74 %
06.12.2019 01:22 0,6 C 0,6 C 0,0 C 94 % 1017,4 hPa 0,0 l/m 0 min 0 min 0 W/m 6,4 km/h (2 Bft) 97,87 %
06.12.2019 01:20 0,6 C 0,6 C 0,0 C 95 % 1017,4 hPa 0,0 l/m 0 min 0 min 0 W/m 16,1 km/h (3 Bft) 97,87 %
06.12.2019 01:18 0,6 C 0,6 C 0,0 C 95 % 1017,6 hPa 0,0 l/m 0 min 0 min 0 W/m 12,9 km/h (3 Bft) 97,87 %
06.12.2019 01:16 0,6 C 0,6 C 0,0 C 95 % 1017,6 hPa 0,0 l/m 0 min 0 min 0 W/m 12,9 km/h (3 Bft) 53,49 %
06.12.2019 01:14 0,6 C 0,6 C 0,0 C 95 % 1017,6 hPa 0,0 l/m 0 min 0 min 0 W/m 16,1 km/h (3 Bft) 95,74 %
06.12.2019 01:12 0,6 C 0,6 C 0,0 C 95 % 1017,6 hPa 0,0 l/m 0 min 0 min 0 W/m 16,1 km/h (3 Bft) 95,74 %
06.12.2019 01:10 0,5 C 0,6 C 0,0 C 94 % 1017,8 hPa 0,0 l/m 0 min 0 min 0 W/m 6,4 km/h (2 Bft) 93,62 %
06.12.2019 01:08 0,5 C 0,0 C -0,6 C 94 % 1017,7 hPa 0,0 l/m 0 min 0 min 0 W/m 22,5 km/h (4 Bft) 95,74 %
06.12.2019 01:06 0,4 C 0,0 C -0,6 C 94 % 1017,7 hPa 0,0 l/m 0 min 0 min 0 W/m 12,9 km/h (3 Bft) 95,74 %
06.12.2019 01:04 0,4 C 0,0 C -0,6 C 94 % 1017,8 hPa 0,0 l/m 0 min 0 min 0 W/m 12,9 km/h (3 Bft) 95,65 %
06.12.2019 01:02 0,4 C 0,0 C -0,6 C 94 % 1017,8 hPa 0,0 l/m 0 min 0 min 0 W/m 19,3 km/h (3 Bft) 95,74 %
06.12.2019 01:00 0,4 C 0,0 C -0,6 C 95 % 1017,8 hPa 0,0 l/m 0 min 0 min 0 W/m 16,1 km/h (3 Bft) 97,87 %
06.12.2019 00:58 0,4 C 0,0 C -0,6 C 95 % 1017,8 hPa 0,0 l/m 0 min 0 min 0 W/m 19,3 km/h (3 Bft) 95,74 %
06.12.2019 00:56 0,4 C 0,0 C -0,6 C 95 % 1017,8 hPa 0,0 l/m 0 min 0 min 0 W/m 19,3 km/h (3 Bft) 95,74 %
06.12.2019 00:54 0,4 C 0,0 C -0,6 C 95 % 1017,9 hPa 0,0 l/m 0 min 0 min 0 W/m 22,5 km/h (4 Bft) 95,74 %
06.12.2019 00:52 0,4 C 0,0 C -0,6 C 95 % 1017,9 hPa 0,0 l/m 0 min 0 min 0 W/m 16,1 km/h (3 Bft) 95,65 %
06.12.2019 00:50 0,4 C 0,0 C -0,6 C 95 % 1017,9 hPa 0,0 l/m 0 min 0 min 0 W/m 25,7 km/h (4 Bft) 93,62 %
06.12.2019 00:48 0,4 C 0,0 C -0,6 C 95 % 1017,9 hPa 0,0 l/m 0 min 0 min 0 W/m 19,3 km/h (3 Bft) 95,74 %
06.12.2019 00:46 0,4 C 0,0 C -0,6 C 95 % 1017,9 hPa 0,0 l/m 0 min 0 min 0 W/m 19,3 km/h (3 Bft) 93,62 %
06.12.2019 00:44 0,4 C 0,0 C -0,6 C 95 % 1018,0 hPa 0,0 l/m 0 min 0 min 0 W/m 12,9 km/h (3 Bft) 95,74 %
06.12.2019 00:42 0,4 C 0,0 C -0,6 C 95 % 1017,9 hPa 0,0 l/m 0 min 0 min 0 W/m 19,3 km/h (3 Bft) 93,48 %
06.12.2019 00:40 0,4 C 0,0 C -0,6 C 95 % 1018,0 hPa 0,0 l/m 0 min 0 min 0 W/m 22,5 km/h (4 Bft) 97,87 %
06.12.2019 00:38 0,5 C 0,0 C -0,6 C 95 % 1018,0 hPa 0,0 l/m 0 min 0 min 0 W/m 19,3 km/h (3 Bft) 95,74 %
06.12.2019 00:36 0,5 C 0,0 C -0,6 C 95 % 1018,0 hPa 0,0 l/m 0 min 0 min 0 W/m 16,1 km/h (3 Bft) 95,74 %
06.12.2019 00:34 0,5 C 0,0 C -0,6 C 95 % 1018,1 hPa 0,0 l/m 0 min 0 min 0 W/m 19,3 km/h (3 Bft) 95,74 %
06.12.2019 00:32 0,6 C 0,0 C -0,6 C 95 % 1018,1 hPa 0,0 l/m 0 min 0 min 0 W/m 16,1 km/h (3 Bft) 95,74 %
06.12.2019 00:30 0,6 C 0,0 C -0,6 C 95 % 1018,3 hPa 0,0 l/m 0 min 0 min 0 W/m 12,9 km/h (3 Bft) 90,00 %
06.12.2019 00:28 0,6 C 0,0 C -0,6 C 95 % 1018,3 hPa 0,0 l/m 0 min 0 min 0 W/m 16,1 km/h (3 Bft) 61,70 %
06.12.2019 00:26 0,6 C 0,0 C -0,6 C 95 % 1018,4 hPa 0,0 l/m 0 min 0 min 0 W/m 19,3 km/h (3 Bft) 95,74 %
06.12.2019 00:24 0,6 C 0,0 C -0,6 C 95 % 1018,4 hPa 0,0 l/m 0 min 0 min 0 W/m 16,1 km/h (3 Bft) 95,74 %
06.12.2019 00:22 0,6 C 0,0 C -0,6 C 95 % 1018,5 hPa 0,0 l/m 0 min 0 min 0 W/m 16,1 km/h (3 Bft) 95,74 %
06.12.2019 00:20 0,6 C 0,0 C -0,6 C 95 % 1018,4 hPa 0,0 l/m 0 min 0 min 0 W/m 19,3 km/h (3 Bft) 93,48 %
06.12.2019 00:18 0,6 C 0,0 C -0,6 C 95 % 1018,4 hPa 0,0 l/m 0 min 0 min 0 W/m 16,1 km/h (3 Bft) 93,62 %
06.12.2019 00:16 0,6 C 0,0 C -0,6 C 95 % 1018,4 hPa 0,0 l/m 0 min 0 min 0 W/m 19,3 km/h (3 Bft) 97,87 %
06.12.2019 00:14 0,6 C 0,0 C -0,6 C 95 % 1018,5 hPa 0,0 l/m 0 min 0 min 0 W/m 16,1 km/h (3 Bft) 95,74 %
06.12.2019 00:12 0,6 C 0,0 C -0,6 C 95 % 1018,5 hPa 0,0 l/m 0 min 0 min 0 W/m 16,1 km/h (3 Bft) 95,74 %
06.12.2019 00:10 0,7 C 0,0 C -0,6 C 96 % 1018,5 hPa 0,0 l/m 0 min 0 min 0 W/m 16,1 km/h (3 Bft) 95,74 %
06.12.2019 00:08 0,6 C 0,0 C -0,6 C 96 % 1018,6 hPa 0,0 l/m 0 min 0 min 0 W/m 16,1 km/h (3 Bft) 100,00 %
06.12.2019 00:07 0,7 C 0,0 C -0,6 C 95 % 1018,6 hPa 0,0 l/m 0 min 0 min 0 W/m 12,9 km/h (3 Bft) 100,00 %
06.12.2019 00:04 0,7 C 0,0 C -0,6 C 96 % 1018,7 hPa 0,0 l/m 0 min 0 min 0 W/m 19,3 km/h (3 Bft) 95,65 %
06.12.2019 00:02 0,7 C 0,0 C -0,6 C 96 % 1018,8 hPa 0,0 l/m 0 min 0 min 0 W/m 16,1 km/h (3 Bft) 9,52 %
06.12.2019 00:00 0,7 C 0,0 C -0,6 C 96 % 1018,7 hPa 0,0 l/m 0 min 0 min 0 W/m 16,1 km/h (3 Bft) 97,87 %
05.12.2019 23:58 0,8 C 0,0 C -0,6 C 96 % 1018,7 hPa 0,0 l/m 0 min 0 min 0 W/m 12,9 km/h (3 Bft) 100,00 %
05.12.2019 23:56 0,8 C 0,0 C -0,6 C 96 % 1018,7 hPa 0,0 l/m 0 min 0 min 0 W/m 19,3 km/h (3 Bft) 100,00 %
05.12.2019 23:54 0,8 C 0,0 C 0,0 C 96 % 1018,7 hPa 0,0 l/m 0 min 0 min 0 W/m 12,9 km/h (3 Bft) 100,00 %
05.12.2019 23:52 0,8 C 0,0 C 0,0 C 96 % 1018,8 hPa 0,0 l/m 0 min 0 min 0 W/m 19,3 km/h (3 Bft) 100,00 %
05.12.2019 23:50 0,8 C 0,6 C 0,0 C 96 % 1018,8 hPa 0,0 l/m 0 min 0 min 0 W/m 29,0 km/h (5 Bft) 100,00 %
05.12.2019 23:48 0,8 C 0,6 C 0,0 C 96 % 1018,8 hPa 0,0 l/m 0 min 0 min 0 W/m 22,5 km/h (4 Bft) 100,00 %
05.12.2019 23:46 0,8 C 0,6 C 0,0 C 96 % 1018,8 hPa 0,0 l/m 0 min 0 min 0 W/m 22,5 km/h (4 Bft) 100,00 %
05.12.2019 23:44 0,8 C 0,0 C 0,0 C 96 % 1018,8 hPa 0,0 l/m 0 min 0 min 0 W/m 29,0 km/h (5 Bft) 100,00 %
05.12.2019 23:42 0,8 C 0,0 C 0,0 C 96 % 1018,7 hPa 0,0 l/m 0 min 0 min 0 W/m 25,7 km/h (4 Bft) 100,00 %
05.12.2019 23:40 0,9 C 0,0 C -0,6 C 96 % 1018,8 hPa 0,0 l/m 0 min 0 min 0 W/m 22,5 km/h (4 Bft) 100,00 %
05.12.2019 23:38 0,9 C 0,0 C -0,6 C 96 % 1018,8 hPa 0,0 l/m 0 min 0 min 0 W/m 19,3 km/h (3 Bft) 100,00 %
05.12.2019 23:36 0,9 C 0,0 C 0,0 C 96 % 1018,7 hPa 0,0 l/m 0 min 0 min 0 W/m 16,1 km/h (3 Bft) 100,00 %
05.12.2019 23:34 0,9 C 0,0 C 0,0 C 96 % 1018,8 hPa 0,0 l/m 0 min 0 min 0 W/m 12,9 km/h (3 Bft) 100,00 %
05.12.2019 23:32 0,9 C 0,0 C 0,0 C 96 % 1018,7 hPa 0,0 l/m 0 min 0 min 0 W/m 19,3 km/h (3 Bft) 100,00 %
05.12.2019 23:30 0,9 C 0,0 C 0,0 C 96 % 1018,7 hPa 0,0 l/m 0 min 0 min 0 W/m 19,3 km/h (3 Bft) 100,00 %
05.12.2019 23:28 0,9 C 0,0 C 0,0 C 96 % 1018,7 hPa 0,0 l/m 0 min 0 min 0 W/m 12,9 km/h (3 Bft) 100,00 %
05.12.2019 23:26 0,9 C 0,0 C 0,0 C 96 % 1018,8 hPa 0,0 l/m 0 min 0 min 0 W/m 19,3 km/h (3 Bft) 100,00 %
05.12.2019 23:24 1,0 C 0,6 C 0,0 C 96 % 1018,8 hPa 0,0 l/m 0 min 0 min 0 W/m 19,3 km/h (3 Bft) 100,00 %
05.12.2019 23:22 1,0 C 0,6 C 0,0 C 96 % 1018,7 hPa 0,0 l/m 0 min 0 min 0 W/m 16,1 km/h (3 Bft) 100,00 %
05.12.2019 23:20 1,0 C 0,6 C 0,0 C 96 % 1018,7 hPa 0,0 l/m 0 min 0 min 0 W/m 19,3 km/h (3 Bft) 100,00 %
05.12.2019 23:18 1,0 C 0,6 C 0,0 C 96 % 1018,7 hPa 0,0 l/m 0 min 0 min 0 W/m 29,0 km/h (5 Bft) 100,00 %
05.12.2019 23:16 1,0 C 0,6 C 0,0 C 96 % 1018,8 hPa 0,0 l/m 0 min 0 min 0 W/m 32,2 km/h (5 Bft) 100,00 %
05.12.2019 23:14 1,0 C 0,6 C 0,0 C 96 % 1018,8 hPa 0,0 l/m 0 min 0 min 0 W/m 25,7 km/h (4 Bft) 100,00 %
05.12.2019 23:12 1,0 C 0,6 C 0,0 C 96 % 1018,8 hPa 0,0 l/m 0 min 0 min 0 W/m 25,7 km/h (4 Bft) 97,87 %
05.12.2019 23:10 1,0 C 0,6 C 0,0 C 96 % 1018,8 hPa 0,0 l/m 0 min 0 min 0 W/m 12,9 km/h (3 Bft) 100,00 %
05.12.2019 23:08 1,0 C 0,6 C 0,0 C 96 % 1018,9 hPa 0,0 l/m 0 min 0 min 0 W/m 16,1 km/h (3 Bft) 97,87 %
05.12.2019 23:06 1,0 C 0,6 C 0,0 C 96 % 1018,9 hPa 0,0 l/m 0 min 0 min 0 W/m 16,1 km/h (3 Bft) 100,00 %
05.12.2019 23:04 1,0 C 0,6 C 0,0 C 96 % 1018,9 hPa 0,0 l/m 0 min 0 min 0 W/m 19,3 km/h (3 Bft) 95,74 %
05.12.2019 23:02 1,0 C 0,6 C 0,0 C 96 % 1018,9 hPa 0,0 l/m 0 min 0 min 0 W/m 16,1 km/h (3 Bft) 97,87 %
05.12.2019 23:00 1,0 C 0,6 C 0,0 C 96 % 1019,0 hPa 0,0 l/m 0 min 0 min 0 W/m 16,1 km/h (3 Bft) 97,87 %
05.12.2019 22:58 1,0 C 0,6 C 0,0 C 96 % 1018,9 hPa 0,0 l/m 0 min 0 min 0 W/m 19,3 km/h (3 Bft) 97,87 %
05.12.2019 22:56 1,0 C 0,6 C 0,0 C 96 % 1018,9 hPa 0,0 l/m 0 min 0 min 0 W/m 16,1 km/h (3 Bft) 97,83 %
05.12.2019 22:54 1,0 C 0,6 C 0,0 C 96 % 1018,9 hPa 0,0 l/m 0 min 0 min 0 W/m 19,3 km/h (3 Bft) 95,74 %
05.12.2019 22:52 1,0 C 0,6 C 0,0 C 96 % 1018,9 hPa 0,0 l/m 0 min 0 min 0 W/m 12,9 km/h (3 Bft) 95,74 %
05.12.2019 22:50 1,0 C 0,6 C 0,0 C 96 % 1018,9 hPa 0,0 l/m 0 min 0 min 0 W/m 16,1 km/h (3 Bft) 95,74 %
05.12.2019 22:48 0,9 C 0,6 C 0,0 C 96 % 1018,9 hPa 0,0 l/m 0 min 0 min 0 W/m 16,1 km/h (3 Bft) 97,87 %
05.12.2019 22:46 0,9 C 0,6 C 0,0 C 96 % 1018,9 hPa 0,0 l/m 0 min 0 min 0 W/m 16,1 km/h (3 Bft) 93,48 %
05.12.2019 22:44 0,9 C 0,6 C 0,0 C 96 % 1018,9 hPa 0,0 l/m 0 min 0 min 0 W/m 16,1 km/h (3 Bft) 97,87 %
05.12.2019 22:42 0,9 C 0,6 C 0,0 C 96 % 1018,9 hPa 0,0 l/m 0 min 0 min 0 W/m 12,9 km/h (3 Bft) 97,87 %
05.12.2019 22:40 0,9 C 0,6 C 0,0 C 96 % 1018,9 hPa 0,0 l/m 0 min 0 min 0 W/m 16,1 km/h (3 Bft) 97,87 %
05.12.2019 22:38 0,9 C 0,6 C 0,0 C 96 % 1018,9 hPa 0,0 l/m 0 min 0 min 0 W/m 16,1 km/h (3 Bft) 95,74 %
05.12.2019 22:36 0,9 C 0,6 C 0,0 C 96 % 1019,0 hPa 0,0 l/m 0 min 0 min 0 W/m 12,9 km/h (3 Bft) 97,87 %
05.12.2019 22:34 0,9 C 0,6 C 0,0 C 96 % 1019,0 hPa 0,0 l/m 0 min 0 min 0 W/m 16,1 km/h (3 Bft) 97,83 %
05.12.2019 22:32 0,9 C 0,6 C 0,0 C 96 % 1019,0 hPa 0,0 l/m 0 min 0 min 0 W/m 16,1 km/h (3 Bft) 95,74 %
05.12.2019 22:30 0,8 C 0,6 C 0,0 C 96 % 1019,0 hPa 0,0 l/m 0 min 0 min 0 W/m 12,9 km/h (3 Bft) 95,74 %
05.12.2019 22:28 0,8 C 0,6 C 0,0 C 96 % 1019,0 hPa 0,0 l/m 0 min 0 min 0 W/m 16,1 km/h (3 Bft) 97,87 %
05.12.2019 22:26 0,8 C 0,6 C 0,0 C 95 % 1019,0 hPa 0,0 l/m 0 min 0 min 0 W/m 19,3 km/h (3 Bft) 93,62 %
05.12.2019 22:24 0,8 C 0,6 C 0,0 C 95 % 1019,1 hPa 0,0 l/m 0 min 0 min 0 W/m 16,1 km/h (3 Bft) 95,74 %
05.12.2019 22:22 0,8 C 0,0 C 0,0 C 95 % 1019,0 hPa 0,0 l/m 0 min 0 min 0 W/m 9,7 km/h (2 Bft) 95,65 %
05.12.2019 22:20 0,8 C 0,0 C 0,0 C 95 % 1019,1 hPa 0,0 l/m 0 min 0 min 0 W/m 16,1 km/h (3 Bft) 95,74 %
05.12.2019 22:18 0,8 C 0,0 C -0,6 C 95 % 1019,1 hPa 0,0 l/m 0 min 0 min 0 W/m 12,9 km/h (3 Bft) 95,74 %
05.12.2019 22:16 0,8 C 0,0 C -0,6 C 95 % 1019,1 hPa 0,0 l/m 0 min 0 min 0 W/m 12,9 km/h (3 Bft) 97,87 %
05.12.2019 22:14 0,8 C 0,0 C -0,6 C 95 % 1019,1 hPa 0,0 l/m 0 min 0 min 0 W/m 12,9 km/h (3 Bft) 97,87 %
05.12.2019 22:12 0,8 C 0,0 C -0,6 C 95 % 1019,0 hPa 0,0 l/m 0 min 0 min 0 W/m 12,9 km/h (3 Bft) 97,87 %
05.12.2019 22:10 0,8 C 0,0 C -0,6 C 96 % 1019,0 hPa 0,0 l/m 0 min 0 min 0 W/m 9,7 km/h (2 Bft) 97,83 %
05.12.2019 22:08 0,8 C 0,0 C -0,6 C 96 % 1019,0 hPa 0,0 l/m 0 min 0 min 0 W/m 12,9 km/h (3 Bft) 97,87 %
05.12.2019 22:06 0,8 C 0,0 C -0,6 C 95 % 1019,1 hPa 0,0 l/m 0 min 0 min 0 W/m 9,7 km/h (2 Bft) 97,87 %
05.12.2019 22:04 0,8 C 0,0 C -0,6 C 96 % 1019,1 hPa 0,0 l/m 0 min 0 min 0 W/m 12,9 km/h (3 Bft) 93,62 %
05.12.2019 22:02 0,9 C 0,0 C -0,6 C 96 % 1019,1 hPa 0,0 l/m 0 min 0 min 0 W/m 6,4 km/h (2 Bft) 95,74 %
05.12.2019 22:00 0,9 C 0,0 C -0,6 C 96 % 1019,1 hPa 0,0 l/m 0 min 0 min 0 W/m 16,1 km/h (3 Bft) 97,87 %
05.12.2019 21:58 0,9 C 0,0 C -0,6 C 95 % 1019,1 hPa 0,0 l/m 0 min 0 min 0 W/m 19,3 km/h (3 Bft) 97,83 %
05.12.2019 21:56 0,9 C 0,0 C -0,6 C 95 % 1019,0 hPa 0,0 l/m 0 min 0 min 0 W/m 9,7 km/h (2 Bft) 97,87 %
05.12.2019 21:54 0,9 C 0,0 C -0,6 C 95 % 1019,0 hPa 0,0 l/m 0 min 0 min 0 W/m 12,9 km/h (3 Bft) 95,74 %
05.12.2019 21:52 0,9 C 0,0 C -0,6 C 96 % 1019,0 hPa 0,0 l/m 0 min 0 min 0 W/m 16,1 km/h (3 Bft) 97,87 %
05.12.2019 21:50 1,0 C 0,0 C -0,6 C 95 % 1019,1 hPa 0,0 l/m 0 min 0 min 0 W/m 6,4 km/h (2 Bft) 95,74 %
05.12.2019 21:48 1,0 C 0,0 C 0,0 C 95 % 1019,2 hPa 0,0 l/m 0 min 0 min 0 W/m 12,9 km/h (3 Bft) 97,83 %
05.12.2019 21:46 1,0 C 0,0 C 0,0 C 95 % 1019,1 hPa 0,0 l/m 0 min 0 min 0 W/m 19,3 km/h (3 Bft) 97,87 %
05.12.2019 21:44 1,1 C 0,0 C 0,0 C 95 % 1019,2 hPa 0,0 l/m 0 min 0 min 0 W/m 6,4 km/h (2 Bft) 95,74 %
05.12.2019 21:42 1,1 C 0,6 C 0,0 C 95 % 1019,3 hPa 0,0 l/m 0 min 0 min 0 W/m 19,3 km/h (3 Bft) 97,87 %
05.12.2019 21:40 1,1 C 0,6 C 0,0 C 95 % 1019,3 hPa 0,0 l/m 0 min 0 min 0 W/m 16,1 km/h (3 Bft) 97,87 %
05.12.2019 21:38 1,1 C 0,6 C 0,0 C 95 % 1019,3 hPa 0,0 l/m 0 min 0 min 0 W/m 9,7 km/h (2 Bft) 100,00 %
05.12.2019 21:36 1,1 C 0,6 C 0,0 C 95 % 1019,3 hPa 0,0 l/m 0 min 0 min 0 W/m 16,1 km/h (3 Bft) 97,83 %
05.12.2019 21:34 1,1 C 0,6 C 0,0 C 95 % 1019,3 hPa 0,0 l/m 0 min 0 min 0 W/m 12,9 km/h (3 Bft) 97,87 %
05.12.2019 21:32 1,1 C 0,6 C 0,0 C 95 % 1019,3 hPa 0,0 l/m 0 min 0 min 0 W/m 16,1 km/h (3 Bft) 95,74 %
05.12.2019 21:30 1,1 C 0,6 C 0,0 C 95 % 1019,3 hPa 0,0 l/m 0 min 0 min 0 W/m 12,9 km/h (3 Bft) 100,00 %
05.12.2019 21:28 1,2 C 0,6 C 0,0 C 95 % 1019,3 hPa 0,0 l/m 0 min 0 min 0 W/m 12,9 km/h (3 Bft) 100,00 %
05.12.2019 21:26 1,2 C 0,6 C 0,0 C 95 % 1019,3 hPa 0,0 l/m 0 min 0 min 0 W/m 16,1 km/h (3 Bft) 93,62 %
05.12.2019 21:24 1,2 C 0,6 C 0,0 C 95 % 1019,3 hPa 0,0 l/m 0 min 0 min 0 W/m 12,9 km/h (3 Bft) 95,65 %
05.12.2019 21:22 1,2 C 0,6 C 0,0 C 95 % 1019,3 hPa 0,0 l/m 0 min 0 min 0 W/m 16,1 km/h (3 Bft) 97,87 %
05.12.2019 21:20 1,2 C 0,6 C 0,0 C 95 % 1019,3 hPa 0,0 l/m 0 min 0 min 0 W/m 6,4 km/h (2 Bft) 97,87 %
05.12.2019 21:18 1,2 C 0,6 C 0,0 C 95 % 1019,4 hPa 0,0 l/m 0 min 0 min 0 W/m 12,9 km/h (3 Bft) 97,87 %
05.12.2019 21:16 1,2 C 0,6 C 0,0 C 95 % 1019,4 hPa 0,0 l/m 0 min 0 min 0 W/m 19,3 km/h (3 Bft) 95,74 %
05.12.2019 21:14 1,2 C 0,6 C 0,0 C 95 % 1019,4 hPa 0,0 l/m 0 min 0 min 0 W/m 16,1 km/h (3 Bft) 95,74 %
05.12.2019 21:12 1,2 C 0,6 C 0,0 C 95 % 1019,4 hPa 0,0 l/m 0 min 0 min 0 W/m 12,9 km/h (3 Bft) 95,65 %
05.12.2019 21:10 1,2 C 0,6 C 0,0 C 95 % 1019,4 hPa 0,0 l/m 0 min 0 min 0 W/m 19,3 km/h (3 Bft) 97,87 %
05.12.2019 21:08 1,2 C 0,6 C 0,0 C 95 % 1019,5 hPa 0,0 l/m 0 min 0 min 0 W/m 19,3 km/h (3 Bft) 97,87 %
05.12.2019 21:06 1,2 C 0,6 C 0,0 C 95 % 1019,5 hPa 0,0 l/m 0 min 0 min 0 W/m 9,7 km/h (2 Bft) 97,87 %
05.12.2019 21:04 1,2 C 0,6 C 0,0 C 95 % 1019,5 hPa 0,0 l/m 0 min 0 min 0 W/m 16,1 km/h (3 Bft) 97,87 %
05.12.2019 21:02 1,2 C 0,6 C 0,0 C 95 % 1019,6 hPa 0,0 l/m 0 min 0 min 0 W/m 6,4 km/h (2 Bft) 97,83 %
05.12.2019 21:00 1,2 C 0,6 C 0,0 C 95 % 1019,6 hPa 0,0 l/m 0 min 0 min 0 W/m 6,4 km/h (2 Bft) 97,87 %
05.12.2019 20:58 1,2 C 0,6 C 0,0 C 95 % 1019,5 hPa 0,0 l/m 0 min 0 min 0 W/m 12,9 km/h (3 Bft) 97,87 %
05.12.2019 20:56 1,2 C 0,6 C 0,0 C 95 % 1019,6 hPa 0,0 l/m 0 min 0 min 0 W/m 19,3 km/h (3 Bft) 97,87 %
05.12.2019 20:54 1,1 C 0,6 C 0,0 C 95 % 1019,6 hPa 0,0 l/m 0 min 0 min 0 W/m 19,3 km/h (3 Bft) 97,87 %
05.12.2019 20:52 1,1 C 0,6 C 0,0 C 95 % 1019,6 hPa 0,0 l/m 0 min 0 min 0 W/m 16,1 km/h (3 Bft) 95,74 %
05.12.2019 20:50 1,1 C 0,6 C 0,0 C 95 % 1019,6 hPa 0,0 l/m 0 min 0 min 0 W/m 29,0 km/h (5 Bft) 97,83 %
05.12.2019 20:48 1,1 C 0,6 C 0,0 C 95 % 1019,7 hPa 0,0 l/m 0 min 0 min 0 W/m 19,3 km/h (3 Bft) 95,74 %
05.12.2019 20:46 1,1 C 0,6 C 0,0 C 95 % 1019,7 hPa 0,0 l/m 0 min 0 min 0 W/m 19,3 km/h (3 Bft) 97,87 %
05.12.2019 20:44 1,1 C 0,6 C 0,0 C 95 % 1019,7 hPa 0,0 l/m 0 min 0 min 0 W/m 19,3 km/h (3 Bft) 97,87 %
05.12.2019 20:42 1,1 C 0,6 C 0,0 C 95 % 1019,7 hPa 0,0 l/m 0 min 0 min 0 W/m 22,5 km/h (4 Bft) 95,74 %
05.12.2019 20:40 1,0 C 0,6 C 0,0 C 95 % 1019,6 hPa 0,0 l/m 0 min 0 min 0 W/m 16,1 km/h (3 Bft) 97,87 %
05.12.2019 20:38 1,0 C 0,6 C 0,0 C 95 % 1019,7 hPa 0,0 l/m 0 min 0 min 0 W/m 32,2 km/h (5 Bft) 100,00 %
05.12.2019 20:36 1,0 C 0,6 C 0,0 C 95 % 1019,7 hPa 0,0 l/m 0 min 0 min 0 W/m 19,3 km/h (3 Bft) 97,87 %
05.12.2019 20:34 1,0 C 0,6 C 0,0 C 95 % 1019,7 hPa 0,0 l/m 0 min 0 min 0 W/m 19,3 km/h (3 Bft) 97,87 %
05.12.2019 20:32 0,9 C 0,6 C 0,0 C 95 % 1019,7 hPa 0,0 l/m 0 min 0 min 0 W/m 19,3 km/h (3 Bft) 97,87 %
05.12.2019 20:30 0,9 C 0,6 C 0,0 C 95 % 1019,8 hPa 0,0 l/m 0 min 0 min 0 W/m 25,7 km/h (4 Bft) 95,74 %
05.12.2019 20:28 0,9 C 0,6 C 0,0 C 95 % 1019,8 hPa 0,0 l/m 0 min 0 min 0 W/m 19,3 km/h (3 Bft) 97,87 %
05.12.2019 20:26 0,9 C 0,6 C 0,0 C 95 % 1019,8 hPa 0,0 l/m 0 min 0 min 0 W/m 16,1 km/h (3 Bft) 97,83 %
05.12.2019 20:24 0,9 C 0,0 C 0,0 C 94 % 1019,7 hPa 0,0 l/m 0 min 0 min 0 W/m 19,3 km/h (3 Bft) 95,74 %
05.12.2019 20:22 0,9 C 0,0 C 0,0 C 94 % 1019,7 hPa 0,0 l/m 0 min 0 min 0 W/m 25,7 km/h (4 Bft) 95,74 %
05.12.2019 20:20 1,0 C 0,0 C 0,0 C 94 % 1019,8 hPa 0,0 l/m 0 min 0 min 0 W/m 29,0 km/h (5 Bft) 100,00 %
05.12.2019 20:18 1,0 C 0,0 C 0,0 C 94 % 1019,7 hPa 0,0 l/m 0 min 0 min 0 W/m 19,3 km/h (3 Bft) 97,87 %
05.12.2019 20:16 1,0 C 0,0 C 0,0 C 94 % 1019,7 hPa 0,0 l/m 0 min 0 min 0 W/m 25,7 km/h (4 Bft) 97,87 %
05.12.2019 20:14 1,0 C 0,0 C 0,0 C 94 % 1019,7 hPa 0,0 l/m 0 min 0 min 0 W/m 22,5 km/h (4 Bft) 97,83 %
05.12.2019 20:12 1,0 C 0,0 C 0,0 C 94 % 1019,7 hPa 0,0 l/m 0 min 0 min 0 W/m 22,5 km/h (4 Bft) 95,74 %
05.12.2019 20:10 1,1 C 0,0 C 0,0 C 94 % 1019,8 hPa 0,0 l/m 0 min 0 min 0 W/m 29,0 km/h (5 Bft) 97,87 %
05.12.2019 20:08 1,1 C 0,6 C 0,0 C 94 % 1019,7 hPa 0,0 l/m 0 min 0 min 0 W/m 19,3 km/h (3 Bft) 98,08 %
05.12.2019 20:06 1,1 C 0,6 C 0,0 C 94 % 1019,7 hPa 0,0 l/m 0 min 0 min 0 W/m 22,5 km/h (4 Bft) 97,87 %
05.12.2019 20:04 1,1 C 0,6 C 0,0 C 94 % 1019,8 hPa 0,0 l/m 0 min 0 min 0 W/m 19,3 km/h (3 Bft) 97,87 %
05.12.2019 20:02 1,1 C 0,6 C 0,0 C 94 % 1019,9 hPa 0,0 l/m 0 min 0 min 0 W/m 19,3 km/h (3 Bft) 95,74 %
05.12.2019 20:00 1,1 C 0,6 C 0,0 C 94 % 1019,9 hPa 0,0 l/m 0 min 0 min 0 W/m 19,3 km/h (3 Bft) 97,83 %
05.12.2019 19:58 1,1 C 0,6 C 0,0 C 94 % 1019,9 hPa 0,0 l/m 0 min 0 min 0 W/m 25,7 km/h (4 Bft) 95,74 %
05.12.2019 19:56 1,1 C 0,6 C 0,0 C 94 % 1020,0 hPa 0,0 l/m 0 min 0 min 0 W/m 22,5 km/h (4 Bft) 97,87 %
05.12.2019 19:54 1,2 C 0,6 C 0,0 C 94 % 1019,9 hPa 0,0 l/m 0 min 0 min 0 W/m 16,1 km/h (3 Bft) 95,74 %
05.12.2019 19:52 1,2 C 0,6 C 0,0 C 94 % 1020,0 hPa 0,0 l/m 0 min 0 min 0 W/m 16,1 km/h (3 Bft) 93,62 %
05.12.2019 19:50 1,2 C 0,6 C 0,0 C 94 % 1020,0 hPa 0,0 l/m 0 min 0 min 0 W/m 29,0 km/h (5 Bft) 95,65 %
05.12.2019 19:48 1,2 C 0,6 C 0,0 C 94 % 1020,0 hPa 0,0 l/m 0 min 0 min 0 W/m 25,7 km/h (4 Bft) 96,30 %
05.12.2019 19:46 1,2 C 0,6 C 0,0 C 94 % 1020,1 hPa 0,0 l/m 0 min 0 min 0 W/m 22,5 km/h (4 Bft) 91,43 %
05.12.2019 19:44 1,2 C 0,6 C 0,0 C 94 % 1020,1 hPa 0,0 l/m 0 min 0 min 0 W/m 19,3 km/h (3 Bft) 95,92 %
05.12.2019 19:42 1,2 C 0,6 C 0,0 C 94 % 1020,1 hPa 0,0 l/m 0 min 0 min 0 W/m 12,9 km/h (3 Bft) 95,74 %
05.12.2019 19:40 1,2 C 0,6 C 0,0 C 94 % 1020,0 hPa 0,0 l/m 0 min 0 min 0 W/m 16,1 km/h (3 Bft) 91,49 %
05.12.2019 19:38 1,3 C 0,6 C 0,0 C 94 % 1020,1 hPa 0,0 l/m 0 min 0 min 0 W/m 12,9 km/h (3 Bft) 95,92 %
05.12.2019 19:36 1,3 C 0,6 C 0,0 C 94 % 1020,1 hPa 0,0 l/m 0 min 0 min 0 W/m 12,9 km/h (3 Bft) 96,30 %
05.12.2019 19:34 1,3 C 0,6 C 0,0 C 94 % 1020,1 hPa 0,0 l/m 0 min 0 min 0 W/m 12,9 km/h (3 Bft) 91,43 %
05.12.2019 19:32 1,3 C 0,6 C 0,0 C 94 % 1020,1 hPa 0,0 l/m 0 min 0 min 0 W/m 16,1 km/h (3 Bft) 95,92 %
05.12.2019 19:30 1,3 C 0,6 C 0,0 C 94 % 1020,2 hPa 0,0 l/m 0 min 0 min 0 W/m 22,5 km/h (4 Bft) 97,87 %
05.12.2019 19:28 1,4 C 0,6 C 0,0 C 94 % 1020,3 hPa 0,0 l/m 0 min 0 min 0 W/m 16,1 km/h (3 Bft) 97,87 %
05.12.2019 19:26 1,4 C 0,6 C 0,0 C 94 % 1020,3 hPa 0,0 l/m 0 min 0 min 0 W/m 22,5 km/h (4 Bft) 97,96 %
05.12.2019 19:24 1,4 C 0,6 C 0,0 C 93 % 1020,4 hPa 0,0 l/m 0 min 0 min 0 W/m 19,3 km/h (3 Bft) 94,44 %
05.12.2019 19:22 1,4 C 0,6 C 0,0 C 93 % 1020,4 hPa 0,0 l/m 0 min 0 min 0 W/m 16,1 km/h (3 Bft) 97,87 %
05.12.2019 19:20 1,5 C 0,6 C 0,0 C 93 % 1020,5 hPa 0,0 l/m 0 min 0 min 0 W/m 22,5 km/h (4 Bft) 97,83 %
05.12.2019 19:18 1,5 C 0,6 C 0,0 C 93 % 1020,4 hPa 0,0 l/m 0 min 0 min 0 W/m 25,7 km/h (4 Bft) 88,89 %
05.12.2019 19:16 1,6 C 0,6 C 0,6 C 93 % 1020,4 hPa 0,0 l/m 0 min 0 min 0 W/m 19,3 km/h (3 Bft) 97,83 %
05.12.2019 19:14 1,6 C 0,6 C 0,6 C 93 % 1020,4 hPa 0,0 l/m 0 min 0 min 0 W/m 19,3 km/h (3 Bft) 100,00 %
05.12.2019 19:12 1,6 C 0,6 C 0,6 C 93 % 1020,4 hPa 0,0 l/m 0 min 0 min 0 W/m 6,4 km/h (2 Bft) 100,00 %
05.12.2019 19:10 1,6 C 0,6 C 0,6 C 93 % 1020,4 hPa 0,0 l/m 0 min 0 min 0 W/m 16,1 km/h (3 Bft) 96,23 %
05.12.2019 19:08 1,6 C 0,6 C 0,6 C 93 % 1020,5 hPa 0,0 l/m 0 min 0 min 0 W/m 19,3 km/h (3 Bft) 97,22 %
05.12.2019 19:06 1,7 C 0,6 C 0,6 C 93 % 1020,4 hPa 0,0 l/m 0 min 0 min 0 W/m 19,3 km/h (3 Bft) 97,96 %
05.12.2019 19:04 1,7 C 0,6 C 0,6 C 93 % 1020,5 hPa 0,0 l/m 0 min 0 min 0 W/m 16,1 km/h (3 Bft) 98,00 %
05.12.2019 19:02 1,7 C 1,1 C 0,6 C 93 % 1020,4 hPa 0,0 l/m 0 min 0 min 0 W/m 19,3 km/h (3 Bft) 100,00 %
05.12.2019 19:00 1,8 C 1,1 C 0,6 C 93 % 1020,4 hPa 0,0 l/m 0 min 0 min 0 W/m 22,5 km/h (4 Bft) 97,62 %
05.12.2019 18:58 1,8 C 0,6 C 0,6 C 93 % 1020,5 hPa 0,0 l/m 0 min 0 min 0 W/m 19,3 km/h (3 Bft) 97,87 %
05.12.2019 18:56 1,8 C 0,6 C 0,6 C 93 % 1020,5 hPa 0,0 l/m 0 min 0 min 0 W/m 16,1 km/h (3 Bft) 97,87 %
05.12.2019 18:54 1,8 C 1,1 C 0,6 C 93 % 1020,5 hPa 0,0 l/m 0 min 0 min 0 W/m 6,4 km/h (2 Bft) 100,00 %
05.12.2019 18:52 1,9 C 1,1 C 0,6 C 93 % 1020,5 hPa 0,0 l/m 0 min 0 min 0 W/m 12,9 km/h (3 Bft) 97,96 %
05.12.2019 18:50 1,9 C 1,1 C 0,6 C 93 % 1020,5 hPa 0,0 l/m 0 min 0 min 0 W/m 16,1 km/h (3 Bft) 100,00 %
05.12.2019 18:48 1,9 C 1,1 C 0,6 C 93 % 1020,5 hPa 0,0 l/m 0 min 0 min 0 W/m 6,4 km/h (2 Bft) 100,00 %
05.12.2019 18:46 1,9 C 1,1 C 0,6 C 93 % 1020,6 hPa 0,0 l/m 0 min 0 min 0 W/m 6,4 km/h (2 Bft) 100,00 %
05.12.2019 18:44 2,0 C 1,1 C 0,6 C 92 % 1020,6 hPa 0,0 l/m 0 min 0 min 0 W/m 25,7 km/h (4 Bft) 100,00 %
05.12.2019 18:42 2,1 C 1,1 C 0,6 C 93 % 1020,6 hPa 0,0 l/m 0 min 0 min 0 W/m 6,4 km/h (2 Bft) 97,56 %
05.12.2019 18:40 2,1 C 1,1 C 0,6 C 93 % 1020,6 hPa 0,0 l/m 0 min 0 min 0 W/m 6,4 km/h (2 Bft) 100,00 %
05.12.2019 18:38 2,1 C 1,1 C 0,6 C 93 % 1020,6 hPa 0,0 l/m 0 min 0 min 0 W/m 3,2 km/h (1 Bft) 95,83 %
05.12.2019 18:36 2,1 C 1,1 C 0,6 C 93 % 1020,6 hPa 0,0 l/m 0 min 0 min 0 W/m 9,7 km/h (2 Bft) 98,00 %
05.12.2019 18:34 2,2 C 1,1 C 0,6 C 92 % 1020,6 hPa 0,0 l/m 0 min 0 min 0 W/m 19,3 km/h (3 Bft) 97,87 %
05.12.2019 18:32 2,2 C 1,1 C 0,6 C 92 % 1020,6 hPa 0,0 l/m 0 min 0 min 0 W/m 3,2 km/h (1 Bft) 100,00 %
05.12.2019 18:30 2,2 C 1,1 C 0,6 C 92 % 1020,6 hPa 0,0 l/m 0 min 0 min 0 W/m 0,0 km/h (0 Bft) 100,00 %
05.12.2019 18:28 2,3 C 1,1 C 0,6 C 92 % 1020,7 hPa 0,0 l/m 0 min 0 min 0 W/m 6,4 km/h (2 Bft) 97,92 %
05.12.2019 18:26 2,3 C 1,1 C 0,6 C 92 % 1020,7 hPa 0,0 l/m 0 min 0 min 0 W/m 12,9 km/h (3 Bft) 100,00 %
05.12.2019 18:24 2,3 C 1,1 C 1,1 C 92 % 1020,7 hPa 0,0 l/m 0 min 0 min 0 W/m 16,1 km/h (3 Bft) 100,00 %
05.12.2019 18:22 2,3 C 1,1 C 1,1 C 92 % 1020,7 hPa 0,0 l/m 0 min 0 min 0 W/m 6,4 km/h (2 Bft) 100,00 %
05.12.2019 18:20 2,3 C 1,1 C 1,1 C 92 % 1020,7 hPa 0,0 l/m 0 min 0 min 0 W/m 3,2 km/h (1 Bft) 100,00 %
05.12.2019 18:18 2,4 C 1,7 C 1,1 C 92 % 1020,6 hPa 0,0 l/m 0 min 0 min 0 W/m 16,1 km/h (3 Bft) 100,00 %
05.12.2019 18:16 2,4 C 1,7 C 1,1 C 92 % 1020,5 hPa 0,0 l/m 0 min 0 min 0 W/m 19,3 km/h (3 Bft) 97,87 %
05.12.2019 18:14 2,4 C 1,7 C 1,1 C 92 % 1020,5 hPa 0,0 l/m 0 min 0 min 0 W/m 22,5 km/h (4 Bft) 100,00 %
05.12.2019 18:12 2,4 C 1,7 C 1,1 C 92 % 1020,5 hPa 0,0 l/m 0 min 0 min 0 W/m 16,1 km/h (3 Bft) 100,00 %
05.12.2019 18:10 2,4 C 1,7 C 1,1 C 92 % 1020,6 hPa 0,0 l/m 0 min 0 min 0 W/m 12,9 km/h (3 Bft) 100,00 %
05.12.2019 18:08 2,4 C 1,7 C 1,1 C 92 % 1020,6 hPa 0,0 l/m 0 min 0 min 0 W/m 19,3 km/h (3 Bft) 100,00 %
05.12.2019 18:04 2,5 C 1,7 C 1,1 C 92 % 1020,7 hPa 0,0 l/m 0 min 0 min 0 W/m 12,9 km/h (3 Bft) 97,87 %
05.12.2019 18:02 2,5 C 1,7 C 1,1 C 92 % 1020,6 hPa 0,0 l/m 0 min 0 min 0 W/m 19,3 km/h (3 Bft) 100,00 %
05.12.2019 18:00 2,5 C 1,7 C 1,1 C 92 % 1020,6 hPa 0,0 l/m 0 min 0 min 0 W/m 12,9 km/h (3 Bft) 100,00 %
05.12.2019 17:58 2,6 C 1,7 C 1,1 C 92 % 1020,6 hPa 0,0 l/m 0 min 0 min 0 W/m 16,1 km/h (3 Bft) 97,83 %
05.12.2019 17:56 2,6 C 1,7 C 1,1 C 92 % 1020,7 hPa 0,0 l/m 0 min 0 min 0 W/m 12,9 km/h (3 Bft) 100,00 %
05.12.2019 17:54 2,6 C 1,7 C 1,1 C 92 % 1020,7 hPa 0,0 l/m 0 min 0 min 0 W/m 6,4 km/h (2 Bft) 100,00 %
05.12.2019 17:52 2,6 C 1,7 C 1,1 C 92 % 1020,7 hPa 0,0 l/m 0 min 0 min 0 W/m 19,3 km/h (3 Bft) 97,87 %
05.12.2019 17:50 2,6 C 1,7 C 1,1 C 92 % 1020,6 hPa 0,0 l/m 0 min 0 min 0 W/m 12,9 km/h (3 Bft) 100,00 %
05.12.2019 17:48 2,6 C 1,7 C 1,1 C 91 % 1020,7 hPa 0,0 l/m 0 min 0 min 0 W/m 12,9 km/h (3 Bft) 95,65 %
05.12.2019 17:46 2,7 C 1,7 C 1,1 C 91 % 1020,6 hPa 0,0 l/m 0 min 0 min 0 W/m 19,3 km/h (3 Bft) 97,87 %
05.12.2019 17:44 2,7 C 1,7 C 1,1 C 91 % 1020,6 hPa 0,0 l/m 0 min 0 min 0 W/m 6,4 km/h (2 Bft) 100,00 %
05.12.2019 17:42 2,7 C 1,7 C 1,1 C 91 % 1020,7 hPa 0,0 l/m 0 min 0 min 0 W/m 3,2 km/h (1 Bft) 100,00 %
05.12.2019 17:40 2,7 C 1,7 C 1,1 C 91 % 1020,7 hPa 0,0 l/m 0 min 0 min 0 W/m 6,4 km/h (2 Bft) 95,83 %
05.12.2019 17:38 2,7 C 1,7 C 1,1 C 91 % 1020,7 hPa 0,0 l/m 0 min 0 min 0 W/m 3,2 km/h (1 Bft) 100,00 %
05.12.2019 17:36 2,8 C 1,7 C 1,1 C 91 % 1020,7 hPa 0,0 l/m 0 min 0 min 0 W/m 6,4 km/h (2 Bft) 100,00 %
05.12.2019 17:34 2,8 C 1,7 C 1,1 C 91 % 1020,7 hPa 0,0 l/m 0 min 0 min 0 W/m 6,4 km/h (2 Bft) 97,87 %
05.12.2019 17:32 2,8 C 1,7 C 1,1 C 91 % 1020,7 hPa 0,0 l/m 0 min 0 min 0 W/m 12,9 km/h (3 Bft) 95,74 %
05.12.2019 17:30 2,8 C 1,7 C 1,1 C 90 % 1020,8 hPa 0,0 l/m 0 min 0 min 0 W/m 12,9 km/h (3 Bft) 95,74 %
05.12.2019 17:28 2,9 C 1,7 C 1,1 C 90 % 1020,7 hPa 0,0 l/m 0 min 0 min 0 W/m 6,4 km/h (2 Bft) 95,74 %
05.12.2019 17:26 2,9 C 1,7 C 1,1 C 91 % 1020,7 hPa 0,0 l/m 0 min 0 min 0 W/m 6,4 km/h (2 Bft) 95,74 %
05.12.2019 17:24 2,9 C 1,7 C 1,1 C 90 % 1020,7 hPa 0,0 l/m 0 min 0 min 0 W/m 0,0 km/h (0 Bft) 93,48 %
05.12.2019 17:22 3,0 C 1,7 C 1,1 C 90 % 1020,8 hPa 0,0 l/m 0 min 0 min 0 W/m 3,2 km/h (1 Bft) 93,62 %
05.12.2019 17:20 3,1 C 1,7 C 1,1 C 90 % 1020,8 hPa 0,0 l/m 0 min 0 min 0 W/m 3,2 km/h (1 Bft) 93,75 %
05.12.2019 17:18 3,1 C 1,7 C 1,1 C 90 % 1020,9 hPa 0,0 l/m 0 min 0 min 0 W/m 3,2 km/h (1 Bft) 93,62 %
05.12.2019 17:16 3,1 C 1,7 C 1,7 C 90 % 1020,8 hPa 0,0 l/m 0 min 0 min 0 W/m 0,0 km/h (0 Bft) 93,62 %
05.12.2019 17:14 3,1 C 1,7 C 1,7 C 90 % 1020,8 hPa 0,0 l/m 0 min 0 min 0 W/m 3,2 km/h (1 Bft) 91,30 %
05.12.2019 17:12 3,1 C 2,2 C 1,7 C 90 % 1020,8 hPa 0,0 l/m 0 min 0 min 0 W/m 3,2 km/h (1 Bft) 93,62 %
05.12.2019 17:10 3,2 C 2,2 C 1,7 C 90 % 1020,9 hPa 0,0 l/m 0 min 0 min 0 W/m 3,2 km/h (1 Bft) 91,49 %
05.12.2019 17:08 3,2 C 2,2 C 1,7 C 90 % 1020,9 hPa 0,0 l/m 0 min 0 min 0 W/m 0,0 km/h (0 Bft) 94,29 %
05.12.2019 17:06 3,2 C 2,2 C 1,7 C 90 % 1020,9 hPa 0,0 l/m 0 min 0 min 0 W/m 6,4 km/h (2 Bft) 93,62 %
05.12.2019 17:04 3,2 C 2,2 C 1,7 C 90 % 1020,9 hPa 0,0 l/m 0 min 0 min 0 W/m 12,9 km/h (3 Bft) 90,00 %
05.12.2019 17:02 3,2 C 2,2 C 1,7 C 90 % 1020,9 hPa 0,0 l/m 0 min 0 min 0 W/m 12,9 km/h (3 Bft) 95,12 %
05.12.2019 17:00 3,3 C 2,2 C 1,7 C 90 % 1020,8 hPa 0,0 l/m 0 min 0 min 0 W/m 22,5 km/h (4 Bft) 91,49 %
05.12.2019 16:58 3,3 C 2,2 C 2,2 C 90 % 1020,8 hPa 0,0 l/m 0 min 0 min 0 W/m 19,3 km/h (3 Bft) 93,62 %
05.12.2019 16:56 3,3 C 2,2 C 1,7 C 90 % 1020,8 hPa 0,0 l/m 0 min 0 min 0 W/m 16,1 km/h (3 Bft) 93,62 %
05.12.2019 16:54 3,3 C 2,2 C 1,7 C 90 % 1020,8 hPa 0,0 l/m 0 min 0 min 0 W/m 12,9 km/h (3 Bft) 95,74 %
05.12.2019 16:52 3,3 C 2,2 C 1,7 C 90 % 1020,9 hPa 0,0 l/m 0 min 0 min 0 W/m 16,1 km/h (3 Bft) 93,62 %
05.12.2019 16:50 3,4 C 2,2 C 1,7 C 89 % 1020,9 hPa 0,0 l/m 0 min 0 min 0 W/m 12,9 km/h (3 Bft) 93,75 %
05.12.2019 16:48 3,4 C 2,2 C 1,7 C 89 % 1021,0 hPa 0,0 l/m 0 min 0 min 0 W/m 12,9 km/h (3 Bft) 93,75 %
05.12.2019 16:46 3,4 C 2,2 C 1,7 C 90 % 1021,0 hPa 0,0 l/m 0 min 0 min 0 W/m 12,9 km/h (3 Bft) 93,48 %
05.12.2019 16:44 3,4 C 2,8 C 2,2 C 89 % 1021,1 hPa 0,0 l/m 0 min 0 min 0 W/m 3,2 km/h (1 Bft) 93,62 %
05.12.2019 16:42 3,4 C 2,8 C 2,2 C 89 % 1021,1 hPa 0,0 l/m 0 min 0 min 0 W/m 12,9 km/h (3 Bft) 93,62 %
05.12.2019 16:40 3,5 C 2,8 C 2,2 C 89 % 1021,1 hPa 0,0 l/m 0 min 0 min 0 W/m 6,4 km/h (2 Bft) 93,62 %
05.12.2019 16:38 3,5 C 2,8 C 2,2 C 89 % 1021,1 hPa 0,0 l/m 0 min 0 min 0 W/m 3,2 km/h (1 Bft) 91,67 %
05.12.2019 16:36 3,5 C 2,8 C 2,2 C 89 % 1021,1 hPa 0,0 l/m 0 min 0 min 0 W/m 6,4 km/h (2 Bft) 93,62 %
05.12.2019 16:34 3,6 C 2,8 C 2,2 C 89 % 1021,1 hPa 0,0 l/m 0 min 0 min 0 W/m 0,0 km/h (0 Bft) 95,74 %
05.12.2019 16:32 3,6 C 2,8 C 2,2 C 89 % 1021,1 hPa 0,0 l/m 0 min 0 min 0 W/m 3,2 km/h (1 Bft) 95,83 %
05.12.2019 16:30 3,6 C 2,8 C 2,2 C 89 % 1021,1 hPa 0,0 l/m 0 min 0 min 0 W/m 6,4 km/h (2 Bft) 97,87 %
05.12.2019 16:28 3,6 C 2,8 C 2,2 C 89 % 1021,0 hPa 0,0 l/m 0 min 0 min 0 W/m 0,0 km/h (0 Bft) 95,83 %
05.12.2019 16:26 3,6 C 2,8 C 2,2 C 89 % 1021,1 hPa 0,0 l/m 0 min 0 min 0 W/m 0,0 km/h (0 Bft) 97,87 %
05.12.2019 16:24 3,6 C 2,8 C 2,2 C 88 % 1021,0 hPa 0,0 l/m 0 min 0 min 1 W/m 3,2 km/h (1 Bft) 97,87 %
05.12.2019 16:22 3,6 C 2,8 C 2,2 C 88 % 1021,0 hPa 0,0 l/m 0 min 0 min 5 W/m 3,2 km/h (1 Bft) 100,00 %
05.12.2019 16:20 3,6 C 2,8 C 2,2 C 88 % 1021,0 hPa 0,0 l/m 0 min 0 min 5 W/m 3,2 km/h (1 Bft) 100,00 %
05.12.2019 16:18 3,6 C 2,8 C 2,2 C 88 % 1021,0 hPa 0,0 l/m 0 min 0 min 5 W/m 6,4 km/h (2 Bft) 100,00 %
05.12.2019 16:16 3,7 C 2,8 C 2,2 C 88 % 1021,0 hPa 0,0 l/m 0 min 0 min 7 W/m 12,9 km/h (3 Bft) 93,62 %
05.12.2019 16:14 3,7 C 2,8 C 2,2 C 88 % 1021,0 hPa 0,0 l/m 0 min 0 min 9 W/m 16,1 km/h (3 Bft) 100,00 %
05.12.2019 16:12 3,7 C 2,8 C 2,2 C 88 % 1021,0 hPa 0,0 l/m 0 min 0 min 11 W/m 3,2 km/h (1 Bft) 100,00 %
05.12.2019 16:10 3,7 C 2,8 C 2,2 C 88 % 1021,0 hPa 0,0 l/m 0 min 0 min 11 W/m 6,4 km/h (2 Bft) 100,00 %
05.12.2019 16:08 3,7 C 2,8 C 2,2 C 87 % 1021,0 hPa 0,0 l/m 0 min 0 min 12 W/m 16,1 km/h (3 Bft) 97,83 %
05.12.2019 16:06 3,8 C 2,8 C 2,2 C 87 % 1021,1 hPa 0,0 l/m 0 min 0 min 14 W/m 16,1 km/h (3 Bft) 100,00 %
05.12.2019 16:04 3,8 C 2,8 C 2,2 C 87 % 1021,1 hPa 0,0 l/m 0 min 0 min 17 W/m 16,1 km/h (3 Bft) 95,74 %
05.12.2019 16:02 3,8 C 2,8 C 2,2 C 87 % 1021,1 hPa 0,0 l/m 0 min 0 min 18 W/m 19,3 km/h (3 Bft) 100,00 %
05.12.2019 16:00 3,9 C 2,8 C 2,2 C 87 % 1021,1 hPa 0,0 l/m 0 min 0 min 22 W/m 12,9 km/h (3 Bft) 95,74 %
05.12.2019 15:58 4,0 C 2,8 C 2,2 C 86 % 1021,0 hPa 0,0 l/m 0 min 0 min 26 W/m 19,3 km/h (3 Bft) 98,00 %
05.12.2019 15:56 4,1 C 2,8 C 2,2 C 86 % 1021,1 hPa 0,0 l/m 0 min 0 min 27 W/m 6,4 km/h (2 Bft) 100,00 %
05.12.2019 15:54 4,1 C 3,3 C 2,2 C 86 % 1021,1 hPa 0,0 l/m 0 min 0 min 28 W/m 19,3 km/h (3 Bft) 97,14 %
05.12.2019 15:52 4,1 C 3,3 C 2,2 C 86 % 1021,1 hPa 0,0 l/m 0 min 0 min 32 W/m 6,4 km/h (2 Bft) 100,00 %
05.12.2019 15:50 4,2 C 3,3 C 2,2 C 86 % 1021,2 hPa 0,0 l/m 0 min 0 min 34 W/m 3,2 km/h (1 Bft) 100,00 %
05.12.2019 15:48 4,2 C 3,3 C 2,2 C 86 % 1021,2 hPa 0,0 l/m 2 min 0 min 39 W/m 3,2 km/h (1 Bft) 100,00 %
05.12.2019 15:46 4,2 C 3,3 C 2,8 C 85 % 1021,2 hPa 0,0 l/m 4 min 0 min 45 W/m 0,0 km/h (0 Bft) 100,00 %
05.12.2019 15:42 4,3 C 3,3 C 2,8 C 85 % 1021,2 hPa 0,0 l/m 0 min 0 min 42 W/m 3,2 km/h (1 Bft) 97,87 %
05.12.2019 15:40 4,3 C 3,3 C 2,8 C 85 % 1021,2 hPa 0,0 l/m 0 min 0 min 42 W/m 6,4 km/h (2 Bft) 97,92 %
05.12.2019 15:38 4,3 C 3,3 C 2,8 C 85 % 1021,3 hPa 0,0 l/m 0 min 0 min 45 W/m 6,4 km/h (2 Bft) 100,00 %
05.12.2019 15:36 4,4 C 3,3 C 2,8 C 85 % 1021,2 hPa 0,0 l/m 0 min 0 min 46 W/m 6,4 km/h (2 Bft) 100,00 %
05.12.2019 15:34 4,4 C 3,3 C 2,8 C 84 % 1021,2 hPa 0,0 l/m 0 min 0 min 48 W/m 9,7 km/h (2 Bft) 100,00 %
05.12.2019 15:32 4,6 C 3,3 C 2,8 C 84 % 1021,1 hPa 0,0 l/m 0 min 0 min 53 W/m 6,4 km/h (2 Bft) 100,00 %
05.12.2019 15:30 4,6 C 3,3 C 2,8 C 84 % 1021,1 hPa 0,0 l/m 0 min 0 min 54 W/m 6,4 km/h (2 Bft) 97,87 %
05.12.2019 15:28 4,6 C 3,9 C 2,8 C 83 % 1021,0 hPa 0,0 l/m 0 min 0 min 56 W/m 9,7 km/h (2 Bft) 100,00 %
05.12.2019 15:26 4,7 C 3,9 C 2,8 C 83 % 1021,0 hPa 0,0 l/m 0 min 0 min 61 W/m 6,4 km/h (2 Bft) 100,00 %
05.12.2019 15:24 4,7 C 3,9 C 3,3 C 83 % 1021,1 hPa 0,0 l/m 0 min 0 min 62 W/m 6,4 km/h (2 Bft) 97,87 %
05.12.2019 15:22 4,7 C 3,9 C 3,3 C 83 % 1021,1 hPa 0,0 l/m 0 min 0 min 63 W/m 12,9 km/h (3 Bft) 100,00 %
05.12.2019 15:20 4,8 C 3,9 C 3,3 C 82 % 1021,1 hPa 0,0 l/m 0 min 0 min 66 W/m 6,4 km/h (2 Bft) 100,00 %
05.12.2019 15:18 4,8 C 3,9 C 3,3 C 82 % 1021,1 hPa 0,0 l/m 0 min 0 min 69 W/m 12,9 km/h (3 Bft) 95,74 %
05.12.2019 15:16 4,8 C 3,9 C 3,3 C 82 % 1021,1 hPa 0,0 l/m 0 min 0 min 68 W/m 12,9 km/h (3 Bft) 97,92 %
05.12.2019 15:14 4,8 C 4,4 C 3,3 C 82 % 1021,1 hPa 0,0 l/m 0 min 0 min 67 W/m 12,9 km/h (3 Bft) 97,83 %
05.12.2019 15:12 4,9 C 4,4 C 3,3 C 82 % 1021,1 hPa 0,0 l/m 0 min 0 min 66 W/m 19,3 km/h (3 Bft) 97,87 %
05.12.2019 15:10 4,9 C 4,4 C 3,3 C 81 % 1021,2 hPa 0,0 l/m 0 min 0 min 69 W/m 19,3 km/h (3 Bft) 93,75 %
05.12.2019 15:08 4,9 C 4,4 C 3,3 C 81 % 1021,2 hPa 0,0 l/m 0 min 0 min 70 W/m 3,2 km/h (1 Bft) 97,87 %
05.12.2019 15:06 4,9 C 4,4 C 3,3 C 81 % 1021,2 hPa 0,0 l/m 0 min 0 min 70 W/m 3,2 km/h (1 Bft) 97,87 %
05.12.2019 15:04 4,9 C 4,4 C 3,3 C 81 % 1021,2 hPa 0,0 l/m 0 min 0 min 66 W/m 6,4 km/h (2 Bft) 97,87 %
05.12.2019 15:02 5,0 C 4,4 C 3,3 C 81 % 1021,1 hPa 0,0 l/m 0 min 0 min 62 W/m 19,3 km/h (3 Bft) 95,92 %
05.12.2019 15:00 5,0 C 4,4 C 3,3 C 81 % 1021,1 hPa 0,0 l/m 0 min 0 min 59 W/m 19,3 km/h (3 Bft) 97,87 %
05.12.2019 14:58 5,1 C 4,4 C 3,3 C 81 % 1021,0 hPa 0,0 l/m 0 min 0 min 58 W/m 16,1 km/h (3 Bft) 97,87 %
05.12.2019 14:56 5,1 C 4,4 C 3,3 C 81 % 1021,1 hPa 0,0 l/m 0 min 0 min 58 W/m 16,1 km/h (3 Bft) 97,62 %
05.12.2019 14:54 5,1 C 4,4 C 3,3 C 81 % 1021,1 hPa 0,0 l/m 0 min 0 min 60 W/m 12,9 km/h (3 Bft) 97,87 %
05.12.2019 14:52 5,2 C 4,4 C 3,3 C 81 % 1021,1 hPa 0,0 l/m 0 min 0 min 60 W/m 12,9 km/h (3 Bft) 95,74 %
05.12.2019 14:50 5,2 C 4,4 C 3,3 C 81 % 1021,2 hPa 0,0 l/m 0 min 0 min 60 W/m 3,2 km/h (1 Bft) 95,65 %
05.12.2019 14:48 5,2 C 4,4 C 3,3 C 81 % 1021,1 hPa 0,0 l/m 0 min 0 min 60 W/m 6,4 km/h (2 Bft) 95,74 %
05.12.2019 14:46 5,3 C 4,4 C 3,3 C 81 % 1021,2 hPa 0,0 l/m 0 min 0 min 61 W/m 6,4 km/h (2 Bft) 97,87 %
05.12.2019 14:44 5,3 C 4,4 C 3,9 C 81 % 1021,2 hPa 0,0 l/m 0 min 0 min 62 W/m 12,9 km/h (3 Bft) 100,00 %
05.12.2019 14:42 5,3 C 5,0 C 3,9 C 82 % 1021,2 hPa 0,0 l/m 0 min 0 min 69 W/m 12,9 km/h (3 Bft) 95,74 %
05.12.2019 14:40 5,4 C 5,0 C 3,3 C 82 % 1021,3 hPa 0,0 l/m 2 min 0 min 117 W/m 12,9 km/h (3 Bft) 100,00 %
05.12.2019 14:38 5,4 C 5,0 C 3,3 C 82 % 1021,2 hPa 0,0 l/m 2 min 0 min 167 W/m 6,4 km/h (2 Bft) 100,00 %
05.12.2019 14:36 5,5 C 5,6 C 3,3 C 82 % 1021,3 hPa 0,0 l/m 2 min 0 min 176 W/m 6,4 km/h (2 Bft) 97,87 %
05.12.2019 14:34 5,5 C 6,1 C 3,3 C 82 % 1021,3 hPa 0,0 l/m 2 min 0 min 178 W/m 3,2 km/h (1 Bft) 97,87 %
05.12.2019 14:32 5,6 C 7,2 C 3,3 C 82 % 1021,3 hPa 0,0 l/m 2 min 0 min 180 W/m 9,7 km/h (2 Bft) 93,75 %
05.12.2019 14:30 5,6 C 7,8 C 3,3 C 82 % 1021,3 hPa 0,0 l/m 2 min 0 min 182 W/m 3,2 km/h (1 Bft) 97,87 %
05.12.2019 14:28 5,6 C 7,8 C 3,3 C 82 % 1021,3 hPa 0,0 l/m 2 min 0 min 185 W/m 12,9 km/h (3 Bft) 97,87 %
05.12.2019 14:26 5,6 C 7,8 C 3,3 C 82 % 1021,4 hPa 0,0 l/m 2 min 0 min 162 W/m 0,0 km/h (0 Bft) 95,83 %
05.12.2019 14:24 5,7 C 7,2 C 3,3 C 82 % 1021,4 hPa 0,0 l/m 2 min 0 min 156 W/m 3,2 km/h (1 Bft) 95,74 %
05.12.2019 14:22 5,7 C 7,2 C 3,3 C 82 % 1021,3 hPa 0,0 l/m 2 min 0 min 156 W/m 3,2 km/h (1 Bft) 95,83 %
05.12.2019 14:20 5,7 C 7,2 C 3,3 C 82 % 1021,3 hPa 0,0 l/m 2 min 0 min 156 W/m 3,2 km/h (1 Bft) 95,83 %
05.12.2019 14:18 5,7 C 7,2 C 3,3 C 81 % 1021,3 hPa 0,0 l/m 2 min 0 min 160 W/m 3,2 km/h (1 Bft) 95,65 %
05.12.2019 14:16 5,8 C 7,2 C 3,9 C 81 % 1021,3 hPa 0,0 l/m 2 min 0 min 156 W/m 3,2 km/h (1 Bft) 95,83 %
05.12.2019 14:14 5,8 C 7,2 C 3,9 C 81 % 1021,3 hPa 0,0 l/m 2 min 0 min 161 W/m 6,4 km/h (2 Bft) 93,62 %
05.12.2019 14:12 5,8 C 7,8 C 3,9 C 81 % 1021,3 hPa 0,0 l/m 2 min 0 min 171 W/m 6,4 km/h (2 Bft) 91,67 %
05.12.2019 14:10 5,8 C 7,2 C 3,9 C 81 % 1021,2 hPa 0,0 l/m 2 min 0 min 178 W/m 3,2 km/h (1 Bft) 95,74 %
05.12.2019 14:08 5,8 C 7,2 C 3,9 C 81 % 1021,3 hPa 0,0 l/m 2 min 0 min 179 W/m 3,2 km/h (1 Bft) 95,74 %
05.12.2019 14:06 5,9 C 7,8 C 3,9 C 81 % 1021,3 hPa 0,0 l/m 2 min 0 min 179 W/m 6,4 km/h (2 Bft) 95,65 %
05.12.2019 14:04 5,9 C 7,8 C 3,9 C 81 % 1021,3 hPa 0,0 l/m 2 min 0 min 177 W/m 6,4 km/h (2 Bft) 95,74 %
05.12.2019 14:02 5,9 C 8,3 C 3,9 C 81 % 1021,3 hPa 0,0 l/m 2 min 0 min 201 W/m 9,7 km/h (2 Bft) 93,62 %
05.12.2019 14:00 5,9 C 8,3 C 3,9 C 81 % 1021,4 hPa 0,0 l/m 2 min 0 min 204 W/m 12,9 km/h (3 Bft) 95,83 %
05.12.2019 13:58 5,9 C 8,9 C 3,9 C 82 % 1021,3 hPa 0,0 l/m 2 min 0 min 196 W/m 12,9 km/h (3 Bft) 97,87 %
05.12.2019 13:56 5,9 C 8,9 C 3,9 C 82 % 1021,3 hPa 0,0 l/m 2 min 0 min 210 W/m 3,2 km/h (1 Bft) 95,74 %
05.12.2019 13:54 5,8 C 8,9 C 4,4 C 82 % 1021,3 hPa 0,0 l/m 2 min 0 min 192 W/m 6,4 km/h (2 Bft) 97,87 %
05.12.2019 13:52 5,8 C 8,3 C 3,9 C 82 % 1021,3 hPa 0,0 l/m 2 min 0 min 187 W/m 6,4 km/h (2 Bft) 97,87 %
05.12.2019 13:50 5,8 C 8,3 C 4,4 C 82 % 1021,2 hPa 0,0 l/m 2 min 0 min 215 W/m 6,4 km/h (2 Bft) 97,87 %
05.12.2019 13:48 5,8 C 8,9 C 4,4 C 82 % 1021,2 hPa 0,0 l/m 2 min 0 min 217 W/m 12,9 km/h (3 Bft) 93,75 %
05.12.2019 13:46 5,7 C 9,4 C 4,4 C 82 % 1021,2 hPa 0,0 l/m 2 min 0 min 242 W/m 12,9 km/h (3 Bft) 100,00 %
05.12.2019 13:44 5,7 C 8,9 C 4,4 C 83 % 1021,2 hPa 0,0 l/m 2 min 0 min 258 W/m 6,4 km/h (2 Bft) 100,00 %
05.12.2019 13:42 5,6 C 9,4 C 4,4 C 83 % 1021,1 hPa 0,0 l/m 2 min 0 min 273 W/m 12,9 km/h (3 Bft) 100,00 %
05.12.2019 13:40 5,6 C 10,0 C 4,4 C 83 % 1021,2 hPa 0,0 l/m 2 min 0 min 275 W/m 6,4 km/h (2 Bft) 100,00 %
05.12.2019 13:38 5,5 C 9,4 C 4,4 C 83 % 1021,2 hPa 0,0 l/m 2 min 0 min 278 W/m 3,2 km/h (1 Bft) 97,92 %
05.12.2019 13:36 5,4 C 8,9 C 4,4 C 83 % 1021,3 hPa 0,0 l/m 2 min 0 min 281 W/m 6,4 km/h (2 Bft) 100,00 %
05.12.2019 13:34 5,4 C 8,9 C 4,4 C 84 % 1021,3 hPa 0,0 l/m 2 min 0 min 285 W/m 12,9 km/h (3 Bft) 100,00 %
05.12.2019 13:32 5,4 C 8,3 C 3,9 C 84 % 1021,3 hPa 0,0 l/m 2 min 0 min 287 W/m 19,3 km/h (3 Bft) 100,00 %
05.12.2019 13:30 5,3 C 8,3 C 3,9 C 84 % 1021,3 hPa 0,0 l/m 2 min 0 min 291 W/m 16,1 km/h (3 Bft) 100,00 %
05.12.2019 13:28 5,3 C 8,3 C 3,9 C 84 % 1021,3 hPa 0,0 l/m 2 min 0 min 268 W/m 12,9 km/h (3 Bft) 100,00 %
05.12.2019 13:26 5,2 C 7,8 C 3,9 C 85 % 1021,4 hPa 0,0 l/m 2 min 0 min 257 W/m 22,5 km/h (4 Bft) 100,00 %
05.12.2019 13:24 5,2 C 8,3 C 3,9 C 86 % 1021,4 hPa 0,0 l/m 2 min 0 min 243 W/m 12,9 km/h (3 Bft) 100,00 %
05.12.2019 13:22 5,2 C 7,8 C 3,9 C 86 % 1021,4 hPa 0,0 l/m 2 min 0 min 249 W/m 16,1 km/h (3 Bft) 100,00 %
05.12.2019 13:20 5,1 C 7,8 C 3,9 C 87 % 1021,5 hPa 0,0 l/m 2 min 0 min 234 W/m 16,1 km/h (3 Bft) 97,83 %
05.12.2019 13:18 5,1 C 7,8 C 3,9 C 87 % 1021,5 hPa 0,0 l/m 2 min 0 min 235 W/m 16,1 km/h (3 Bft) 97,92 %
05.12.2019 13:16 5,1 C 8,3 C 3,9 C 88 % 1021,4 hPa 0,0 l/m 2 min 0 min 253 W/m 16,1 km/h (3 Bft) 100,00 %
05.12.2019 13:14 5,0 C 7,8 C 3,9 C 88 % 1021,4 hPa 0,0 l/m 2 min 0 min 240 W/m 19,3 km/h (3 Bft) 97,87 %
05.12.2019 13:12 5,0 C 7,2 C 3,9 C 89 % 1021,4 hPa 0,0 l/m 2 min 0 min 225 W/m 16,1 km/h (3 Bft) 100,00 %
05.12.2019 13:10 4,9 C 7,8 C 3,9 C 90 % 1021,4 hPa 0,0 l/m 2 min 0 min 248 W/m 16,1 km/h (3 Bft) 100,00 %
05.12.2019 13:08 4,9 C 7,8 C 3,9 C 91 % 1021,5 hPa 0,0 l/m 2 min 0 min 248 W/m 16,1 km/h (3 Bft) 95,74 %
05.12.2019 13:06 4,8 C 7,8 C 3,9 C 92 % 1021,5 hPa 0,0 l/m 2 min 0 min 262 W/m 12,9 km/h (3 Bft) 100,00 %
05.12.2019 13:04 4,8 C 7,8 C 3,3 C 93 % 1021,5 hPa 0,0 l/m 2 min 0 min 259 W/m 22,5 km/h (4 Bft) 100,00 %
05.12.2019 13:02 4,8 C 7,2 C 3,3 C 94 % 1021,6 hPa 0,0 l/m 2 min 0 min 209 W/m 19,3 km/h (3 Bft) 100,00 %
05.12.2019 13:00 4,7 C 7,8 C 3,3 C 95 % 1021,6 hPa 0,0 l/m 1 min 0 min 204 W/m 12,9 km/h (3 Bft) 100,00 %
05.12.2019 12:59 4,7 C 7,8 C 3,3 C 95 % 1021,6 hPa 0,0 l/m 3 min 0 min 223 W/m 12,9 km/h (3 Bft) 100,00 %
05.12.2019 12:56 4,6 C 8,3 C 3,3 C 96 % 1021,6 hPa 0,0 l/m 2 min 0 min 283 W/m 16,1 km/h (3 Bft) 97,83 %
05.12.2019 12:54 4,6 C 8,3 C 3,3 C 97 % 1021,6 hPa 0,0 l/m 2 min 0 min 287 W/m 12,9 km/h (3 Bft) 100,00 %
05.12.2019 12:52 4,5 C 8,3 C 3,3 C 97 % 1021,6 hPa 0,0 l/m 2 min 0 min 272 W/m 16,1 km/h (3 Bft) 97,87 %
05.12.2019 12:50 4,4 C 8,9 C 3,3 C 97 % 1021,6 hPa 0,0 l/m 2 min 0 min 253 W/m 16,1 km/h (3 Bft) 100,00 %
05.12.2019 12:48 4,3 C 9,4 C 3,3 C 98 % 1021,6 hPa 0,0 l/m 2 min 0 min 262 W/m 6,4 km/h (2 Bft) 100,00 %
05.12.2019 12:46 4,3 C 9,4 C 3,3 C 98 % 1021,6 hPa 0,0 l/m 2 min 0 min 287 W/m 6,4 km/h (2 Bft) 100,00 %
05.12.2019 12:44 4,2 C 10,0 C 3,3 C 98 % 1021,6 hPa 0,0 l/m 2 min 0 min 294 W/m 12,9 km/h (3 Bft) 97,96 %
05.12.2019 12:42 4,1 C 10,0 C 3,3 C 98 % 1021,5 hPa 0,0 l/m 2 min 0 min 289 W/m 6,4 km/h (2 Bft) 100,00 %
05.12.2019 12:40 4,0 C 9,4 C 3,3 C 98 % 1021,6 hPa 0,0 l/m 2 min 0 min 286 W/m 12,9 km/h (3 Bft) 100,00 %
05.12.2019 12:38 3,9 C 9,4 C 3,3 C 99 % 1021,6 hPa 0,0 l/m 2 min 0 min 286 W/m 12,9 km/h (3 Bft) 100,00 %
05.12.2019 12:36 3,8 C 9,4 C 3,3 C 99 % 1021,6 hPa 0,0 l/m 2 min 0 min 284 W/m 12,9 km/h (3 Bft) 97,87 %
05.12.2019 12:34 3,7 C 8,9 C 3,3 C 99 % 1021,6 hPa 0,0 l/m 2 min 0 min 285 W/m 6,4 km/h (2 Bft) 97,87 %
05.12.2019 12:32 3,6 C 9,4 C 3,3 C 99 % 1021,7 hPa 0,0 l/m 2 min 0 min 285 W/m 6,4 km/h (2 Bft) 97,92 %
05.12.2019 12:30 3,5 C 8,9 C 3,3 C 99 % 1021,6 hPa 0,0 l/m 2 min 0 min 286 W/m 6,4 km/h (2 Bft) 95,74 %
05.12.2019 12:28 3,4 C 8,9 C 3,3 C 99 % 1021,6 hPa 0,0 l/m 2 min 0 min 284 W/m 6,4 km/h (2 Bft) 93,75 %
05.12.2019 12:26 3,3 C 8,9 C 3,9 C 99 % 1021,6 hPa 0,0 l/m 2 min 0 min 285 W/m 12,9 km/h (3 Bft) 95,74 %
05.12.2019 12:24 3,2 C 8,3 C 3,9 C 99 % 1021,7 hPa 0,0 l/m 2 min 0 min 279 W/m 6,4 km/h (2 Bft) 93,62 %
05.12.2019 12:22 3,1 C 7,8 C 4,4 C 99 % 1021,7 hPa 0,0 l/m 2 min 0 min 282 W/m 6,4 km/h (2 Bft) 93,62 %
05.12.2019 12:20 3,1 C 7,8 C 5,0 C 99 % 1021,8 hPa 0,0 l/m 2 min 0 min 282 W/m 6,4 km/h (2 Bft) 95,83 %
05.12.2019 12:18 3,0 C 7,8 C 5,6 C 99 % 1021,8 hPa 0,0 l/m 2 min 0 min 279 W/m 12,9 km/h (3 Bft) 95,74 %
05.12.2019 12:16 2,9 C 7,8 C 4,4 C 99 % 1021,8 hPa 0,0 l/m 2 min 0 min 280 W/m 12,9 km/h (3 Bft) 93,75 %
05.12.2019 12:14 2,8 C 7,2 C 3,3 C 99 % 1021,8 hPa 0,0 l/m 2 min 0 min 277 W/m 22,5 km/h (4 Bft) 93,62 %
05.12.2019 12:12 2,8 C 7,8 C 3,3 C 99 % 1021,7 hPa 0,0 l/m 2 min 0 min 276 W/m 12,9 km/h (3 Bft) 93,62 %
05.12.2019 12:10 2,7 C 7,8 C 2,8 C 99 % 1021,7 hPa 0,0 l/m 2 min 0 min 277 W/m 6,4 km/h (2 Bft) 97,92 %
05.12.2019 12:08 2,6 C 7,2 C 2,8 C 99 % 1021,8 hPa 0,0 l/m 2 min 0 min 279 W/m 16,1 km/h (3 Bft) 97,62 %
05.12.2019 12:06 2,5 C 7,8 C 2,8 C 99 % 1021,8 hPa 0,0 l/m 2 min 0 min 276 W/m 6,4 km/h (2 Bft) 98,11 %
05.12.2019 12:04 2,4 C 6,7 C 2,2 C 99 % 1021,7 hPa 0,0 l/m 2 min 0 min 279 W/m 19,3 km/h (3 Bft) 100,00 %
05.12.2019 12:02 2,4 C 6,7 C 2,2 C 99 % 1021,8 hPa 0,0 l/m 2 min 0 min 282 W/m 16,1 km/h (3 Bft) 100,00 %
05.12.2019 12:00 2,3 C 6,1 C 2,2 C 99 % 1021,8 hPa 0,0 l/m 2 min 0 min 279 W/m 6,4 km/h (2 Bft) 100,00 %
05.12.2019 11:58 2,2 C 5,0 C 2,2 C 99 % 1021,8 hPa 0,0 l/m 2 min 0 min 280 W/m 12,9 km/h (3 Bft) 100,00 %
05.12.2019 11:56 2,1 C 5,0 C 2,2 C 99 % 1021,9 hPa 0,0 l/m 2 min 0 min 277 W/m 6,4 km/h (2 Bft) 100,00 %
05.12.2019 11:54 2,1 C 5,6 C 1,7 C 99 % 1021,9 hPa 0,0 l/m 2 min 0 min 276 W/m 12,9 km/h (3 Bft) 100,00 %
05.12.2019 11:52 1,9 C 6,7 C 1,7 C 99 % 1022,0 hPa 0,0 l/m 2 min 0 min 273 W/m 12,9 km/h (3 Bft) 100,00 %
05.12.2019 11:50 1,8 C 7,8 C 1,1 C 99 % 1022,0 hPa 0,0 l/m 2 min 0 min 272 W/m 0,0 km/h (0 Bft) 100,00 %
05.12.2019 11:48 1,8 C 7,2 C 1,1 C 99 % 1022,1 hPa 0,0 l/m 2 min 0 min 268 W/m 0,0 km/h (0 Bft) 100,00 %
05.12.2019 11:46 1,7 C 6,7 C 1,1 C 99 % 1022,1 hPa 0,0 l/m 2 min 0 min 264 W/m 3,2 km/h (1 Bft) 100,00 %
05.12.2019 11:44 1,6 C 6,7 C 1,1 C 99 % 1022,2 hPa 0,0 l/m 2 min 0 min 261 W/m 3,2 km/h (1 Bft) 100,00 %
05.12.2019 11:42 1,6 C 5,6 C 0,6 C 99 % 1022,1 hPa 0,0 l/m 2 min 0 min 258 W/m 6,4 km/h (2 Bft) 100,00 %
05.12.2019 11:40 1,5 C 5,6 C 0,6 C 99 % 1022,1 hPa 0,0 l/m 2 min 0 min 256 W/m 3,2 km/h (1 Bft) 100,00 %
05.12.2019 11:38 1,4 C 5,0 C 0,6 C 98 % 1022,2 hPa 0,0 l/m 2 min 0 min 247 W/m 0,0 km/h (0 Bft) 100,00 %
05.12.2019 11:36 1,3 C 4,4 C 0,6 C 98 % 1022,2 hPa 0,0 l/m 2 min 0 min 227 W/m 0,0 km/h (0 Bft) 97,87 %
05.12.2019 11:34 1,3 C 4,4 C 0,6 C 98 % 1022,3 hPa 0,0 l/m 2 min 0 min 205 W/m 0,0 km/h (0 Bft) 100,00 %
05.12.2019 11:32 1,3 C 3,9 C 0,6 C 98 % 1022,3 hPa 0,0 l/m 2 min 0 min 196 W/m 0,0 km/h (0 Bft) 100,00 %
05.12.2019 11:30 1,2 C 3,9 C 0,6 C 99 % 1022,4 hPa 0,0 l/m 2 min 0 min 191 W/m 0,0 km/h (0 Bft) 100,00 %
05.12.2019 11:28 1,1 C 4,4 C 0,6 C 99 % 1022,5 hPa 0,0 l/m 2 min 0 min 225 W/m 0,0 km/h (0 Bft) 100,00 %
05.12.2019 11:26 1,1 C 4,4 C 0,6 C 98 % 1022,5 hPa 0,0 l/m 2 min 0 min 221 W/m 0,0 km/h (0 Bft) 100,00 %
05.12.2019 11:24 0,9 C 5,0 C 0,6 C 98 % 1022,6 hPa 0,0 l/m 2 min 0 min 216 W/m 3,2 km/h (1 Bft) 100,00 %
05.12.2019 11:22 0,8 C 5,6 C 0,6 C 98 % 1022,6 hPa 0,0 l/m 2 min 0 min 225 W/m 0,0 km/h (0 Bft) 100,00 %
05.12.2019 11:20 0,7 C 4,4 C 0,6 C 98 % 1022,6 hPa 0,0 l/m 2 min 0 min 218 W/m 3,2 km/h (1 Bft) 100,00 %
05.12.2019 11:18 0,6 C 4,4 C 0,6 C 98 % 1022,7 hPa 0,0 l/m 2 min 0 min 206 W/m 0,0 km/h (0 Bft) 42,86 %
05.12.2019 11:16 0,6 C 3,9 C 0,6 C 98 % 1022,7 hPa 0,0 l/m 2 min 0 min 213 W/m 6,4 km/h (2 Bft) 100,00 %
05.12.2019 11:14 0,6 C 3,9 C 0,6 C 98 % 1022,6 hPa 0,0 l/m 2 min 0 min 161 W/m 0,0 km/h (0 Bft) 100,00 %
05.12.2019 11:12 0,6 C 2,8 C 0,6 C 98 % 1022,7 hPa 0,0 l/m 2 min 0 min 201 W/m 0,0 km/h (0 Bft) 100,00 %
05.12.2019 11:10 0,5 C 2,2 C 0,6 C 98 % 1022,7 hPa 0,0 l/m 2 min 0 min 160 W/m 3,2 km/h (1 Bft) 100,00 %
05.12.2019 11:08 0,5 C 1,7 C 0,6 C 98 % 1022,7 hPa 0,0 l/m 0 min 0 min 126 W/m 3,2 km/h (1 Bft) 100,00 %
05.12.2019 11:06 0,4 C 1,1 C 0,0 C 98 % 1022,7 hPa 0,0 l/m 0 min 0 min 135 W/m 3,2 km/h (1 Bft) 100,00 %
05.12.2019 11:04 0,4 C 1,1 C 0,0 C 98 % 1022,8 hPa 0,0 l/m 0 min 0 min 128 W/m 0,0 km/h (0 Bft) 100,00 %
05.12.2019 11:02 0,4 C 0,6 C 0,0 C 98 % 1022,9 hPa 0,0 l/m 0 min 0 min 105 W/m 0,0 km/h (0 Bft) 100,00 %
05.12.2019 11:00 0,4 C 0,6 C 0,0 C 98 % 1023,0 hPa 0,0 l/m 0 min 0 min 102 W/m 3,2 km/h (1 Bft) 100,00 %
05.12.2019 10:58 0,4 C 0,6 C 0,0 C 98 % 1023,1 hPa 0,0 l/m 0 min 0 min 99 W/m 0,0 km/h (0 Bft) 97,92 %
05.12.2019 10:56 0,3 C 0,6 C 0,0 C 98 % 1023,0 hPa 0,0 l/m 0 min 0 min 98 W/m 3,2 km/h (1 Bft) 100,00 %
05.12.2019 10:54 0,3 C 0,6 C 0,0 C 98 % 1023,0 hPa 0,0 l/m 0 min 0 min 95 W/m 3,2 km/h (1 Bft) 97,87 %
05.12.2019 10:52 0,3 C 0,6 C 0,0 C 98 % 1023,0 hPa 0,0 l/m 0 min 0 min 88 W/m 6,4 km/h (2 Bft) 100,00 %
05.12.2019 10:50 0,3 C 0,6 C 0,0 C 98 % 1023,0 hPa 0,0 l/m 0 min 0 min 76 W/m 3,2 km/h (1 Bft) 93,75 %
05.12.2019 10:48 0,2 C 0,6 C 0,0 C 98 % 1023,0 hPa 0,0 l/m 0 min 0 min 76 W/m 0,0 km/h (0 Bft) 97,87 %
05.12.2019 10:46 0,2 C 0,6 C 0,0 C 98 % 1022,9 hPa 0,0 l/m 0 min 0 min 79 W/m 3,2 km/h (1 Bft) 100,00 %
05.12.2019 10:44 0,2 C 0,6 C 0,0 C 98 % 1022,9 hPa 0,0 l/m 0 min 0 min 66 W/m 0,0 km/h (0 Bft) 97,87 %
05.12.2019 10:42 0,1 C 0,6 C 0,0 C 98 % 1022,9 hPa 0,0 l/m 0 min 0 min 68 W/m 6,4 km/h (2 Bft) 95,83 %
05.12.2019 10:40 0,1 C 0,0 C -0,6 C 98 % 1022,8 hPa 0,0 l/m 0 min 0 min 72 W/m 3,2 km/h (1 Bft) 97,92 %
05.12.2019 10:38 0,1 C 0,0 C -0,6 C 98 % 1022,7 hPa 0,0 l/m 0 min 0 min 66 W/m 3,2 km/h (1 Bft) 97,87 %
05.12.2019 10:36 0,0 C 0,0 C -0,6 C 98 % 1022,9 hPa 0,0 l/m 0 min 0 min 60 W/m 3,2 km/h (1 Bft) 95,83 %
05.12.2019 10:34 0,0 C 0,0 C -0,6 C 98 % 1022,9 hPa 0,0 l/m 0 min 0 min 57 W/m 3,2 km/h (1 Bft) 91,49 %
05.12.2019 10:32 0,0 C 0,0 C -0,6 C 98 % 1022,9 hPa 0,0 l/m 0 min 0 min 59 W/m 3,2 km/h (1 Bft) 91,84 %
05.12.2019 10:30 0,0 C 0,0 C -0,6 C 98 % 1022,9 hPa 0,0 l/m 0 min 0 min 58 W/m 3,2 km/h (1 Bft) 93,75 %
05.12.2019 10:28 -0,1 C 0,0 C -0,6 C 98 % 1022,8 hPa 0,0 l/m 0 min 0 min 52 W/m 3,2 km/h (1 Bft) 92,86 %
05.12.2019 10:26 -0,1 C -0,6 C -0,6 C 98 % 1022,9 hPa 0,0 l/m 0 min 0 min 53 W/m 3,2 km/h (1 Bft) 91,30 %
05.12.2019 10:24 -0,1 C -0,6 C -0,6 C 98 % 1022,9 hPa 0,0 l/m 0 min 0 min 52 W/m 3,2 km/h (1 Bft) 93,62 %
05.12.2019 10:22 -0,1 C -0,6 C -0,6 C 98 % 1022,8 hPa 0,0 l/m 0 min 0 min 45 W/m 0,0 km/h (0 Bft) 93,62 %
05.12.2019 10:20 -0,1 C -0,6 C -1,1 C 98 % 1022,8 hPa 0,0 l/m 0 min 0 min 41 W/m 0,0 km/h (0 Bft) 91,49 %
05.12.2019 10:18 -0,1 C -0,6 C -1,1 C 98 % 1022,8 hPa 0,0 l/m 0 min 0 min 41 W/m 12,9 km/h (3 Bft) 95,35 %
05.12.2019 10:16 -0,1 C -0,6 C -1,1 C 98 % 1022,7 hPa 0,0 l/m 0 min 0 min 44 W/m 6,4 km/h (2 Bft) 90,48 %
05.12.2019 10:14 -0,1 C -0,6 C -0,6 C 98 % 1022,8 hPa 0,0 l/m 0 min 0 min 46 W/m 0,0 km/h (0 Bft) 93,62 %
05.12.2019 10:12 -0,1 C -0,6 C -1,1 C 98 % 1022,7 hPa 0,0 l/m 0 min 0 min 40 W/m 3,2 km/h (1 Bft) 93,48 %
05.12.2019 10:10 -0,1 C -0,6 C -0,6 C 98 % 1022,7 hPa 0,0 l/m 0 min 0 min 39 W/m 3,2 km/h (1 Bft) 92,73 %
05.12.2019 10:08 -0,1 C -0,6 C -1,1 C 98 % 1022,7 hPa 0,0 l/m 0 min 0 min 42 W/m 3,2 km/h (1 Bft) 91,67 %
05.12.2019 10:06 -0,1 C -0,6 C -1,1 C 98 % 1022,8 hPa 0,0 l/m 0 min 0 min 41 W/m 6,4 km/h (2 Bft) 95,74 %
05.12.2019 10:04 -0,1 C -0,6 C -0,6 C 97 % 1022,8 hPa 0,0 l/m 0 min 0 min 40 W/m 3,2 km/h (1 Bft) 95,74 %
05.12.2019 10:02 -0,1 C -0,6 C -0,6 C 97 % 1022,7 hPa 0,2 l/m 0 min 0 min 39 W/m 6,4 km/h (2 Bft) 95,35 %
05.12.2019 10:00 -0,2 C -0,6 C -0,6 C 97 % 1022,6 hPa 0,0 l/m 0 min 0 min 36 W/m 0,0 km/h (0 Bft) 93,62 %
_ Min-Zeit 10:00 10:00 10:06 14:00 08:10 - - - - 10:00 00:02
Minimum _ -0,2 C -0,6 C -1,1 C 81 % 1014,0 hPa - - - - 0,0 km/h (0 Bft) 9,52 %
_ Max-Zeit 13:56 12:42 12:18 11:28 10:58 10:02 15:46 04:18 12:44 20:38 10:46
Maximum _ 5,9 C 10,0 C 5,6 C 99 % 1023,1 hPa 0,2 l/m 4 min 2 min 294 W/m 32,2 km/h
S (5 Bft)
100,00 %
Durchschnitt _ 1,8 C 1,8 C 0,8 C 93 % 1019,0 hPa #0,2 l/m #0 min. #40 min. 5 W/m 12,7 km/h (3 Bft) 96,65 %
© 2019 W. Hausmann